Wetterdaten: Mittwoch, 31.05.2023
Datum Zeit Temp. Aussen Temp. o. S. Temp +5cm Feuchte Auss Luftdruck Regen Sonnenschein Regendauer Solar Windben Empfang
31.05.2023 00:00 14,5 C 13,9 C 10,6 C 80 % 1025,1 hPa 0,0 l/m 0 min 0 min 0 W/m 12,9 km/h (3 Bft) 95,74 %
31.05.2023 00:02 14,5 C 13,9 C 10,6 C 80 % 1025,1 hPa 0,0 l/m 0 min 0 min 0 W/m 29,0 km/h (5 Bft) 93,02 %
31.05.2023 00:04 14,5 C 13,9 C 10,6 C 80 % 1025,1 hPa 0,0 l/m 0 min 0 min 0 W/m 9,7 km/h (2 Bft) 97,87 %
31.05.2023 00:08 14,4 C 13,9 C 10,6 C 80 % 1025,1 hPa 0,0 l/m 0 min 0 min 0 W/m 12,9 km/h (3 Bft) 98,97 %
31.05.2023 00:10 14,4 C 13,9 C 10,6 C 80 % 1025,1 hPa 0,0 l/m 0 min 0 min 0 W/m 9,7 km/h (2 Bft) 100,00 %
31.05.2023 00:12 14,4 C 13,9 C 10,6 C 80 % 1025,1 hPa 0,0 l/m 0 min 0 min 0 W/m 12,9 km/h (3 Bft) 97,87 %
31.05.2023 00:14 14,4 C 13,9 C 10,6 C 80 % 1025,1 hPa 0,0 l/m 0 min 0 min 0 W/m 19,3 km/h (3 Bft) 100,00 %
31.05.2023 00:16 14,4 C 13,9 C 10,6 C 81 % 1025,1 hPa 0,0 l/m 0 min 0 min 0 W/m 9,7 km/h (2 Bft) 100,00 %
31.05.2023 00:18 14,4 C 13,9 C 10,6 C 81 % 1025,1 hPa 0,0 l/m 0 min 0 min 0 W/m 9,7 km/h (2 Bft) 97,87 %
31.05.2023 00:20 14,4 C 13,9 C 10,0 C 81 % 1025,1 hPa 0,0 l/m 0 min 0 min 0 W/m 6,4 km/h (2 Bft) 100,00 %
31.05.2023 00:22 14,3 C 13,9 C 10,0 C 81 % 1025,1 hPa 0,0 l/m 0 min 0 min 0 W/m 16,1 km/h (3 Bft) 97,22 %
31.05.2023 00:24 14,3 C 13,9 C 10,0 C 81 % 1025,1 hPa 0,0 l/m 0 min 0 min 0 W/m 6,4 km/h (2 Bft) 97,87 %
31.05.2023 00:26 14,3 C 13,9 C 10,0 C 81 % 1025,1 hPa 0,0 l/m 0 min 0 min 0 W/m 9,7 km/h (2 Bft) 100,00 %
31.05.2023 00:28 14,3 C 13,9 C 10,0 C 81 % 1025,1 hPa 0,0 l/m 0 min 0 min 0 W/m 12,9 km/h (3 Bft) 97,87 %
31.05.2023 00:30 14,3 C 13,9 C 10,0 C 81 % 1025,2 hPa 0,0 l/m 0 min 0 min 0 W/m 16,1 km/h (3 Bft) 100,00 %
31.05.2023 00:32 14,3 C 13,9 C 10,0 C 81 % 1025,2 hPa 0,0 l/m 0 min 0 min 0 W/m 9,7 km/h (2 Bft) 100,00 %
31.05.2023 00:34 14,3 C 13,9 C 10,0 C 81 % 1025,2 hPa 0,0 l/m 0 min 0 min 0 W/m 16,1 km/h (3 Bft) 100,00 %
31.05.2023 00:36 14,3 C 13,9 C 10,0 C 81 % 1025,2 hPa 0,0 l/m 0 min 0 min 0 W/m 9,7 km/h (2 Bft) 100,00 %
31.05.2023 00:38 14,3 C 13,9 C 10,0 C 81 % 1025,2 hPa 0,0 l/m 0 min 0 min 0 W/m 9,7 km/h (2 Bft) 100,00 %
31.05.2023 00:40 14,3 C 13,9 C 10,0 C 81 % 1025,2 hPa 0,0 l/m 0 min 0 min 0 W/m 6,4 km/h (2 Bft) 100,00 %
31.05.2023 00:42 14,3 C 13,3 C 10,0 C 81 % 1025,1 hPa 0,0 l/m 0 min 0 min 0 W/m 9,7 km/h (2 Bft) 100,00 %
31.05.2023 00:44 14,3 C 13,3 C 10,0 C 81 % 1025,2 hPa 0,0 l/m 0 min 0 min 0 W/m 6,4 km/h (2 Bft) 100,00 %
31.05.2023 00:46 14,3 C 13,3 C 10,0 C 81 % 1025,1 hPa 0,0 l/m 0 min 0 min 0 W/m 6,4 km/h (2 Bft) 100,00 %
31.05.2023 00:48 14,3 C 13,3 C 10,0 C 81 % 1025,1 hPa 0,0 l/m 0 min 0 min 0 W/m 6,4 km/h (2 Bft) 100,00 %
31.05.2023 00:50 14,3 C 13,3 C 10,0 C 81 % 1025,1 hPa 0,0 l/m 0 min 0 min 0 W/m 12,9 km/h (3 Bft) 100,00 %
31.05.2023 00:52 14,3 C 13,3 C 10,0 C 81 % 1025,1 hPa 0,0 l/m 0 min 0 min 0 W/m 12,9 km/h (3 Bft) 100,00 %
31.05.2023 00:54 14,3 C 13,3 C 10,0 C 81 % 1025,1 hPa 0,0 l/m 0 min 0 min 0 W/m 6,4 km/h (2 Bft) 98,00 %
31.05.2023 00:56 14,3 C 13,3 C 10,0 C 81 % 1025,1 hPa 0,0 l/m 0 min 0 min 0 W/m 6,4 km/h (2 Bft) 93,48 %
31.05.2023 00:58 14,3 C 13,3 C 10,0 C 81 % 1025,1 hPa 0,0 l/m 0 min 0 min 0 W/m 9,7 km/h (2 Bft) 97,87 %
31.05.2023 01:00 14,3 C 13,3 C 10,0 C 81 % 1025,2 hPa 0,0 l/m 0 min 0 min 0 W/m 6,4 km/h (2 Bft) 97,87 %
31.05.2023 01:02 14,3 C 13,3 C 10,0 C 81 % 1025,1 hPa 0,0 l/m 0 min 0 min 0 W/m 6,4 km/h (2 Bft) 95,74 %
31.05.2023 01:04 14,3 C 13,3 C 10,0 C 82 % 1025,1 hPa 0,0 l/m 0 min 0 min 0 W/m 12,9 km/h (3 Bft) 95,74 %
31.05.2023 01:06 14,3 C 13,3 C 10,0 C 82 % 1025,1 hPa 0,0 l/m 0 min 0 min 0 W/m 6,4 km/h (2 Bft) 98,28 %
31.05.2023 01:08 14,3 C 13,3 C 10,0 C 82 % 1025,1 hPa 0,0 l/m 0 min 0 min 0 W/m 9,7 km/h (2 Bft) 94,44 %
31.05.2023 01:10 14,2 C 13,3 C 10,0 C 82 % 1025,1 hPa 0,0 l/m 0 min 0 min 0 W/m 6,4 km/h (2 Bft) 93,48 %
31.05.2023 01:12 14,2 C 13,3 C 10,0 C 82 % 1025,2 hPa 0,0 l/m 0 min 0 min 0 W/m 6,4 km/h (2 Bft) 93,75 %
31.05.2023 01:14 14,2 C 13,3 C 10,0 C 82 % 1025,1 hPa 0,0 l/m 0 min 0 min 0 W/m 3,2 km/h (1 Bft) 93,62 %
31.05.2023 01:16 14,1 C 13,3 C 10,0 C 82 % 1025,1 hPa 0,0 l/m 0 min 0 min 0 W/m 9,7 km/h (2 Bft) 95,83 %
31.05.2023 01:18 14,1 C 13,3 C 10,0 C 82 % 1025,2 hPa 0,0 l/m 0 min 0 min 0 W/m 9,7 km/h (2 Bft) 93,62 %
31.05.2023 01:20 14,1 C 13,3 C 10,0 C 82 % 1025,1 hPa 0,0 l/m 0 min 0 min 0 W/m 6,4 km/h (2 Bft) 95,74 %
31.05.2023 01:22 14,1 C 13,3 C 10,0 C 82 % 1025,2 hPa 0,0 l/m 0 min 0 min 0 W/m 6,4 km/h (2 Bft) 93,62 %
31.05.2023 01:24 14,1 C 13,3 C 10,0 C 82 % 1025,2 hPa 0,0 l/m 0 min 0 min 0 W/m 9,7 km/h (2 Bft) 95,65 %
31.05.2023 01:26 14,1 C 13,3 C 10,0 C 82 % 1025,2 hPa 0,0 l/m 0 min 0 min 0 W/m 6,4 km/h (2 Bft) 93,62 %
31.05.2023 01:28 14,0 C 13,3 C 10,0 C 82 % 1025,1 hPa 0,0 l/m 0 min 0 min 0 W/m 3,2 km/h (1 Bft) 93,62 %
31.05.2023 01:30 14,0 C 13,3 C 10,0 C 82 % 1025,2 hPa 0,0 l/m 0 min 0 min 0 W/m 12,9 km/h (3 Bft) 95,74 %
31.05.2023 01:32 14,0 C 13,3 C 10,0 C 83 % 1025,2 hPa 0,0 l/m 0 min 0 min 0 W/m 9,7 km/h (2 Bft) 95,74 %
31.05.2023 01:34 13,9 C 13,3 C 10,0 C 83 % 1025,2 hPa 0,0 l/m 0 min 0 min 0 W/m 9,7 km/h (2 Bft) 95,74 %
31.05.2023 01:36 14,0 C 12,8 C 10,0 C 83 % 1025,1 hPa 0,0 l/m 0 min 0 min 0 W/m 6,4 km/h (2 Bft) 97,83 %
31.05.2023 01:38 13,9 C 12,8 C 10,0 C 83 % 1025,1 hPa 0,0 l/m 0 min 0 min 0 W/m 6,4 km/h (2 Bft) 93,62 %
31.05.2023 01:40 13,9 C 12,8 C 9,4 C 83 % 1025,1 hPa 0,0 l/m 0 min 0 min 0 W/m 6,4 km/h (2 Bft) 93,62 %
31.05.2023 01:42 13,9 C 12,8 C 9,4 C 83 % 1025,1 hPa 0,0 l/m 0 min 0 min 0 W/m 6,4 km/h (2 Bft) 97,87 %
31.05.2023 01:44 13,9 C 12,8 C 9,4 C 83 % 1025,1 hPa 0,0 l/m 0 min 0 min 0 W/m 6,4 km/h (2 Bft) 97,87 %
31.05.2023 01:46 13,8 C 12,8 C 9,4 C 83 % 1025,2 hPa 0,0 l/m 0 min 0 min 0 W/m 6,4 km/h (2 Bft) 97,87 %
31.05.2023 01:48 13,8 C 12,8 C 9,4 C 83 % 1025,1 hPa 0,0 l/m 0 min 0 min 0 W/m 9,7 km/h (2 Bft) 97,14 %
31.05.2023 01:50 13,8 C 12,8 C 9,4 C 83 % 1025,1 hPa 0,0 l/m 0 min 0 min 0 W/m 9,7 km/h (2 Bft) 97,87 %
31.05.2023 01:52 13,8 C 12,8 C 9,4 C 83 % 1025,1 hPa 0,0 l/m 0 min 0 min 0 W/m 16,1 km/h (3 Bft) 98,28 %
31.05.2023 01:54 13,8 C 12,8 C 9,4 C 83 % 1025,1 hPa 0,0 l/m 0 min 0 min 0 W/m 9,7 km/h (2 Bft) 97,87 %
31.05.2023 01:56 13,7 C 12,8 C 9,4 C 83 % 1025,2 hPa 0,0 l/m 0 min 0 min 0 W/m 6,4 km/h (2 Bft) 97,14 %
31.05.2023 01:58 13,7 C 12,8 C 9,4 C 83 % 1025,2 hPa 0,0 l/m 0 min 0 min 0 W/m 12,9 km/h (3 Bft) 95,74 %
31.05.2023 02:00 13,7 C 12,8 C 9,4 C 83 % 1025,2 hPa 0,0 l/m 0 min 0 min 0 W/m 6,4 km/h (2 Bft) 96,61 %
31.05.2023 02:02 13,7 C 12,8 C 9,4 C 83 % 1025,3 hPa 0,0 l/m 0 min 0 min 0 W/m 6,4 km/h (2 Bft) 100,00 %
31.05.2023 02:04 13,7 C 12,8 C 9,4 C 84 % 1025,2 hPa 0,0 l/m 0 min 0 min 0 W/m 6,4 km/h (2 Bft) 95,92 %
31.05.2023 02:06 13,6 C 12,8 C 9,4 C 84 % 1025,2 hPa 0,0 l/m 0 min 0 min 0 W/m 12,9 km/h (3 Bft) 96,55 %
31.05.2023 02:08 13,6 C 12,8 C 9,4 C 84 % 1025,3 hPa 0,0 l/m 0 min 0 min 0 W/m 9,7 km/h (2 Bft) 97,14 %
31.05.2023 02:10 13,6 C 12,8 C 9,4 C 84 % 1025,2 hPa 0,0 l/m 0 min 0 min 0 W/m 16,1 km/h (3 Bft) 97,87 %
31.05.2023 02:12 13,6 C 12,8 C 9,4 C 84 % 1025,2 hPa 0,0 l/m 0 min 0 min 0 W/m 9,7 km/h (2 Bft) 97,87 %
31.05.2023 02:14 13,6 C 12,8 C 9,4 C 84 % 1025,2 hPa 0,0 l/m 0 min 0 min 0 W/m 6,4 km/h (2 Bft) 97,87 %
31.05.2023 02:16 13,6 C 12,8 C 9,4 C 84 % 1025,3 hPa 0,0 l/m 0 min 0 min 0 W/m 9,7 km/h (2 Bft) 97,87 %
31.05.2023 02:18 13,6 C 12,8 C 9,4 C 84 % 1025,2 hPa 0,0 l/m 0 min 0 min 0 W/m 9,7 km/h (2 Bft) 97,87 %
31.05.2023 02:20 13,6 C 12,8 C 9,4 C 84 % 1025,2 hPa 0,0 l/m 0 min 0 min 0 W/m 6,4 km/h (2 Bft) 97,83 %
31.05.2023 02:22 13,6 C 12,8 C 9,4 C 84 % 1025,1 hPa 0,0 l/m 0 min 0 min 0 W/m 6,4 km/h (2 Bft) 95,74 %
31.05.2023 02:24 13,6 C 12,8 C 9,4 C 84 % 1025,2 hPa 0,0 l/m 0 min 0 min 0 W/m 6,4 km/h (2 Bft) 97,87 %
31.05.2023 02:26 13,6 C 12,8 C 9,4 C 84 % 1025,1 hPa 0,0 l/m 0 min 0 min 0 W/m 9,7 km/h (2 Bft) 97,87 %
31.05.2023 02:28 13,6 C 12,8 C 9,4 C 84 % 1025,2 hPa 0,0 l/m 0 min 0 min 0 W/m 9,7 km/h (2 Bft) 97,87 %
31.05.2023 02:30 13,6 C 12,8 C 9,4 C 84 % 1025,1 hPa 0,0 l/m 0 min 0 min 0 W/m 6,4 km/h (2 Bft) 97,87 %
31.05.2023 02:32 13,5 C 12,8 C 9,4 C 85 % 1025,2 hPa 0,0 l/m 0 min 0 min 0 W/m 6,4 km/h (2 Bft) 100,00 %
31.05.2023 02:34 13,5 C 12,8 C 9,4 C 84 % 1025,2 hPa 0,0 l/m 0 min 0 min 0 W/m 12,9 km/h (3 Bft) 100,00 %
31.05.2023 02:36 13,5 C 12,8 C 9,4 C 84 % 1025,2 hPa 0,0 l/m 0 min 0 min 0 W/m 9,7 km/h (2 Bft) 100,00 %
31.05.2023 02:38 13,4 C 12,8 C 9,4 C 84 % 1025,2 hPa 0,0 l/m 0 min 0 min 0 W/m 9,7 km/h (2 Bft) 100,00 %
31.05.2023 02:40 13,4 C 12,8 C 9,4 C 85 % 1025,2 hPa 0,0 l/m 0 min 0 min 0 W/m 6,4 km/h (2 Bft) 100,00 %
31.05.2023 02:42 13,4 C 12,8 C 9,4 C 85 % 1025,1 hPa 0,0 l/m 0 min 0 min 0 W/m 6,4 km/h (2 Bft) 100,00 %
31.05.2023 02:44 13,4 C 12,2 C 9,4 C 85 % 1025,2 hPa 0,0 l/m 0 min 0 min 0 W/m 9,7 km/h (2 Bft) 97,87 %
31.05.2023 02:46 13,4 C 12,2 C 8,9 C 85 % 1025,2 hPa 0,0 l/m 0 min 0 min 0 W/m 6,4 km/h (2 Bft) 95,74 %
31.05.2023 02:48 13,4 C 12,2 C 8,9 C 85 % 1025,2 hPa 0,0 l/m 0 min 0 min 0 W/m 6,4 km/h (2 Bft) 100,00 %
31.05.2023 02:50 13,3 C 12,2 C 8,9 C 85 % 1025,2 hPa 0,0 l/m 0 min 0 min 0 W/m 9,7 km/h (2 Bft) 100,00 %
31.05.2023 02:52 13,3 C 12,2 C 8,9 C 85 % 1025,2 hPa 0,0 l/m 0 min 0 min 0 W/m 6,4 km/h (2 Bft) 100,00 %
31.05.2023 02:54 13,3 C 12,2 C 8,9 C 85 % 1025,2 hPa 0,0 l/m 0 min 0 min 0 W/m 9,7 km/h (2 Bft) 97,87 %
31.05.2023 02:56 13,3 C 12,2 C 8,9 C 85 % 1025,2 hPa 0,0 l/m 0 min 0 min 0 W/m 9,7 km/h (2 Bft) 98,18 %
31.05.2023 02:58 13,3 C 12,2 C 8,9 C 85 % 1025,2 hPa 0,0 l/m 0 min 0 min 0 W/m 6,4 km/h (2 Bft) 97,83 %
31.05.2023 03:00 13,2 C 12,2 C 8,9 C 85 % 1025,2 hPa 0,0 l/m 0 min 0 min 0 W/m 9,7 km/h (2 Bft) 97,87 %
31.05.2023 03:02 13,2 C 12,2 C 8,9 C 85 % 1025,2 hPa 0,0 l/m 0 min 0 min 0 W/m 6,4 km/h (2 Bft) 97,87 %
31.05.2023 03:04 13,2 C 12,2 C 8,9 C 85 % 1025,2 hPa 0,0 l/m 0 min 0 min 0 W/m 6,4 km/h (2 Bft) 95,74 %
31.05.2023 03:06 13,2 C 12,2 C 8,9 C 85 % 1025,2 hPa 0,0 l/m 0 min 0 min 0 W/m 6,4 km/h (2 Bft) 97,92 %
31.05.2023 03:08 13,2 C 12,2 C 8,9 C 85 % 1025,2 hPa 0,0 l/m 0 min 0 min 0 W/m 6,4 km/h (2 Bft) 97,87 %
31.05.2023 03:10 13,2 C 12,2 C 8,9 C 85 % 1025,2 hPa 0,0 l/m 0 min 0 min 0 W/m 6,4 km/h (2 Bft) 97,87 %
31.05.2023 03:12 13,2 C 12,2 C 8,9 C 86 % 1025,2 hPa 0,0 l/m 0 min 0 min 0 W/m 6,4 km/h (2 Bft) 97,83 %
31.05.2023 03:14 13,1 C 12,2 C 8,9 C 86 % 1025,2 hPa 0,0 l/m 0 min 0 min 0 W/m 9,7 km/h (2 Bft) 97,87 %
31.05.2023 03:16 13,1 C 12,2 C 8,9 C 86 % 1025,2 hPa 0,0 l/m 0 min 0 min 0 W/m 6,4 km/h (2 Bft) 95,74 %
31.05.2023 03:18 13,1 C 12,2 C 8,9 C 86 % 1025,2 hPa 0,0 l/m 0 min 0 min 0 W/m 6,4 km/h (2 Bft) 97,87 %
31.05.2023 03:20 13,1 C 12,2 C 8,9 C 86 % 1025,2 hPa 0,0 l/m 0 min 0 min 0 W/m 6,4 km/h (2 Bft) 97,87 %
31.05.2023 03:22 13,1 C 12,2 C 8,9 C 86 % 1025,2 hPa 0,0 l/m 0 min 0 min 0 W/m 6,4 km/h (2 Bft) 97,87 %
31.05.2023 03:24 13,1 C 12,2 C 8,9 C 86 % 1025,2 hPa 0,0 l/m 0 min 0 min 0 W/m 6,4 km/h (2 Bft) 97,87 %
31.05.2023 03:26 13,0 C 12,2 C 8,9 C 86 % 1025,2 hPa 0,0 l/m 0 min 0 min 0 W/m 6,4 km/h (2 Bft) 95,65 %
31.05.2023 03:28 13,0 C 12,2 C 8,9 C 86 % 1025,2 hPa 0,0 l/m 0 min 0 min 0 W/m 6,4 km/h (2 Bft) 100,00 %
31.05.2023 03:30 13,0 C 12,2 C 8,9 C 86 % 1025,2 hPa 0,0 l/m 0 min 0 min 0 W/m 19,3 km/h (3 Bft) 100,00 %
31.05.2023 03:32 12,9 C 12,2 C 8,9 C 86 % 1025,2 hPa 0,0 l/m 0 min 0 min 0 W/m 6,4 km/h (2 Bft) 100,00 %
31.05.2023 03:34 12,9 C 12,2 C 8,9 C 86 % 1025,2 hPa 0,0 l/m 0 min 0 min 0 W/m 3,2 km/h (1 Bft) 100,00 %
31.05.2023 03:36 12,9 C 12,2 C 8,9 C 86 % 1025,2 hPa 0,0 l/m 0 min 0 min 0 W/m 6,4 km/h (2 Bft) 100,00 %
31.05.2023 03:38 12,9 C 12,2 C 8,9 C 86 % 1025,2 hPa 0,0 l/m 0 min 0 min 0 W/m 6,4 km/h (2 Bft) 100,00 %
31.05.2023 03:40 12,9 C 12,2 C 8,9 C 86 % 1025,2 hPa 0,0 l/m 0 min 0 min 0 W/m 3,2 km/h (1 Bft) 100,00 %
31.05.2023 03:42 12,9 C 12,2 C 8,9 C 86 % 1025,2 hPa 0,0 l/m 0 min 0 min 0 W/m 12,9 km/h (3 Bft) 100,00 %
31.05.2023 03:44 12,8 C 12,2 C 8,9 C 87 % 1025,2 hPa 0,0 l/m 0 min 0 min 0 W/m 6,4 km/h (2 Bft) 100,00 %
31.05.2023 03:46 12,8 C 11,7 C 8,9 C 87 % 1025,2 hPa 0,0 l/m 0 min 0 min 0 W/m 6,4 km/h (2 Bft) 100,00 %
31.05.2023 03:48 12,8 C 11,7 C 8,9 C 87 % 1025,2 hPa 0,0 l/m 0 min 0 min 0 W/m 6,4 km/h (2 Bft) 100,00 %
31.05.2023 03:50 12,8 C 11,7 C 8,9 C 87 % 1025,2 hPa 0,0 l/m 0 min 0 min 0 W/m 3,2 km/h (1 Bft) 100,00 %
31.05.2023 03:52 12,8 C 11,7 C 8,9 C 87 % 1025,2 hPa 0,0 l/m 0 min 0 min 0 W/m 12,9 km/h (3 Bft) 100,00 %
31.05.2023 03:54 12,8 C 11,7 C 8,9 C 87 % 1025,2 hPa 0,0 l/m 0 min 0 min 0 W/m 3,2 km/h (1 Bft) 100,00 %
31.05.2023 03:56 12,8 C 11,7 C 8,9 C 87 % 1025,2 hPa 0,0 l/m 0 min 0 min 0 W/m 6,4 km/h (2 Bft) 100,00 %
31.05.2023 03:58 12,8 C 11,7 C 8,9 C 87 % 1025,2 hPa 0,0 l/m 0 min 0 min 0 W/m 12,9 km/h (3 Bft) 97,87 %
31.05.2023 04:00 12,8 C 11,7 C 8,9 C 87 % 1025,2 hPa 0,0 l/m 0 min 0 min 0 W/m 6,4 km/h (2 Bft) 100,00 %
31.05.2023 04:05 12,7 C 11,7 C 8,3 C 87 % 1025,1 hPa 0,0 l/m 0 min 0 min 0 W/m 9,7 km/h (2 Bft) 97,53 %
31.05.2023 04:06 12,7 C 11,7 C 8,3 C 87 % 1025,1 hPa 0,0 l/m 0 min 0 min 0 W/m 3,2 km/h (1 Bft) 95,83 %
31.05.2023 04:08 12,7 C 11,7 C 8,3 C 87 % 1025,1 hPa 0,0 l/m 0 min 0 min 0 W/m 6,4 km/h (2 Bft) 100,00 %
31.05.2023 04:10 12,7 C 11,7 C 8,3 C 87 % 1025,1 hPa 0,0 l/m 0 min 0 min 0 W/m 12,9 km/h (3 Bft) 97,87 %
31.05.2023 04:12 12,6 C 11,7 C 8,3 C 87 % 1025,1 hPa 0,0 l/m 0 min 0 min 0 W/m 6,4 km/h (2 Bft) 97,87 %
31.05.2023 04:14 12,6 C 11,7 C 8,3 C 87 % 1025,1 hPa 0,0 l/m 0 min 0 min 0 W/m 3,2 km/h (1 Bft) 95,74 %
31.05.2023 04:16 12,6 C 11,7 C 8,3 C 87 % 1025,1 hPa 0,0 l/m 0 min 0 min 0 W/m 3,2 km/h (1 Bft) 93,62 %
31.05.2023 04:18 12,6 C 11,7 C 8,3 C 87 % 1025,1 hPa 0,0 l/m 0 min 0 min 0 W/m 3,2 km/h (1 Bft) 97,87 %
31.05.2023 04:20 12,6 C 11,7 C 8,3 C 87 % 1025,1 hPa 0,0 l/m 0 min 0 min 0 W/m 6,4 km/h (2 Bft) 95,65 %
31.05.2023 04:22 12,6 C 11,7 C 8,3 C 87 % 1025,1 hPa 0,0 l/m 0 min 0 min 0 W/m 3,2 km/h (1 Bft) 95,92 %
31.05.2023 04:24 12,5 C 11,7 C 8,3 C 88 % 1025,1 hPa 0,0 l/m 0 min 0 min 0 W/m 3,2 km/h (1 Bft) 95,74 %
31.05.2023 04:26 12,5 C 11,7 C 8,3 C 88 % 1025,1 hPa 0,0 l/m 0 min 0 min 0 W/m 3,2 km/h (1 Bft) 95,74 %
31.05.2023 04:28 12,4 C 11,7 C 8,3 C 88 % 1025,1 hPa 0,0 l/m 0 min 0 min 0 W/m 9,7 km/h (2 Bft) 92,86 %
31.05.2023 04:30 12,4 C 11,7 C 8,3 C 88 % 1025,1 hPa 0,0 l/m 0 min 0 min 0 W/m 3,2 km/h (1 Bft) 96,00 %
31.05.2023 04:32 12,4 C 11,7 C 8,3 C 88 % 1025,1 hPa 0,0 l/m 0 min 0 min 0 W/m 6,4 km/h (2 Bft) 95,74 %
31.05.2023 04:34 12,4 C 11,7 C 8,3 C 88 % 1025,2 hPa 0,0 l/m 0 min 0 min 0 W/m 3,2 km/h (1 Bft) 93,62 %
31.05.2023 04:36 12,4 C 11,7 C 8,3 C 88 % 1025,2 hPa 0,0 l/m 0 min 0 min 0 W/m 9,7 km/h (2 Bft) 95,65 %
31.05.2023 04:38 12,4 C 11,7 C 8,3 C 88 % 1025,2 hPa 0,0 l/m 0 min 0 min 0 W/m 12,9 km/h (3 Bft) 93,62 %
31.05.2023 04:40 12,4 C 11,7 C 8,3 C 88 % 1025,2 hPa 0,0 l/m 0 min 0 min 0 W/m 3,2 km/h (1 Bft) 93,62 %
31.05.2023 04:42 12,4 C 11,7 C 8,3 C 88 % 1025,1 hPa 0,0 l/m 0 min 0 min 0 W/m 9,7 km/h (2 Bft) 93,62 %
31.05.2023 04:44 12,3 C 11,7 C 8,3 C 88 % 1025,1 hPa 0,0 l/m 0 min 0 min 0 W/m 6,4 km/h (2 Bft) 93,62 %
31.05.2023 04:46 12,3 C 11,7 C 8,3 C 88 % 1025,1 hPa 0,0 l/m 0 min 0 min 0 W/m 3,2 km/h (1 Bft) 89,36 %
31.05.2023 04:48 12,3 C 11,7 C 8,3 C 88 % 1025,2 hPa 0,0 l/m 0 min 0 min 0 W/m 3,2 km/h (1 Bft) 93,48 %
31.05.2023 04:50 12,3 C 11,7 C 8,3 C 88 % 1025,1 hPa 0,0 l/m 0 min 0 min 0 W/m 3,2 km/h (1 Bft) 93,62 %
31.05.2023 04:52 12,3 C 11,7 C 8,3 C 88 % 1025,1 hPa 0,0 l/m 0 min 0 min 0 W/m 16,1 km/h (3 Bft) 91,49 %
31.05.2023 04:54 12,3 C 11,7 C 8,3 C 89 % 1025,1 hPa 0,0 l/m 0 min 0 min 0 W/m 6,4 km/h (2 Bft) 93,62 %
31.05.2023 04:56 12,3 C 11,1 C 8,3 C 89 % 1025,1 hPa 0,0 l/m 0 min 0 min 0 W/m 9,7 km/h (2 Bft) 93,62 %
31.05.2023 04:58 12,2 C 11,1 C 8,3 C 89 % 1025,1 hPa 0,0 l/m 0 min 0 min 0 W/m 3,2 km/h (1 Bft) 95,74 %
31.05.2023 05:00 12,2 C 11,1 C 8,3 C 89 % 1025,1 hPa 0,0 l/m 0 min 0 min 0 W/m 6,4 km/h (2 Bft) 95,74 %
31.05.2023 05:02 12,2 C 11,1 C 7,8 C 89 % 1025,0 hPa 0,0 l/m 0 min 0 min 0 W/m 6,4 km/h (2 Bft) 95,65 %
31.05.2023 05:04 12,2 C 11,1 C 7,8 C 89 % 1025,1 hPa 0,0 l/m 0 min 0 min 0 W/m 12,9 km/h (3 Bft) 95,74 %
31.05.2023 05:06 12,2 C 11,1 C 7,8 C 89 % 1025,0 hPa 0,0 l/m 0 min 0 min 0 W/m 9,7 km/h (2 Bft) 96,61 %
31.05.2023 05:08 12,2 C 11,1 C 7,8 C 89 % 1025,0 hPa 0,0 l/m 0 min 0 min 0 W/m 9,7 km/h (2 Bft) 97,14 %
31.05.2023 05:10 12,2 C 11,1 C 7,8 C 89 % 1025,1 hPa 0,0 l/m 0 min 0 min 0 W/m 9,7 km/h (2 Bft) 100,00 %
31.05.2023 05:12 12,2 C 11,1 C 7,8 C 89 % 1025,1 hPa 0,0 l/m 0 min 0 min 0 W/m 9,7 km/h (2 Bft) 100,00 %
31.05.2023 05:14 12,2 C 11,1 C 7,8 C 89 % 1025,1 hPa 0,0 l/m 0 min 0 min 0 W/m 6,4 km/h (2 Bft) 97,87 %
31.05.2023 05:16 12,1 C 11,1 C 7,8 C 89 % 1025,1 hPa 0,0 l/m 0 min 0 min 0 W/m 3,2 km/h (1 Bft) 100,00 %
31.05.2023 05:18 12,1 C 11,1 C 7,8 C 89 % 1025,1 hPa 0,0 l/m 0 min 0 min 0 W/m 6,4 km/h (2 Bft) 100,00 %
31.05.2023 05:20 12,1 C 11,1 C 7,8 C 89 % 1025,0 hPa 0,0 l/m 0 min 0 min 0 W/m 16,1 km/h (3 Bft) 97,87 %
31.05.2023 05:22 12,1 C 11,1 C 7,8 C 89 % 1025,1 hPa 0,0 l/m 0 min 0 min 0 W/m 6,4 km/h (2 Bft) 97,87 %
31.05.2023 05:24 12,1 C 11,1 C 7,8 C 89 % 1025,1 hPa 0,0 l/m 0 min 0 min 0 W/m 9,7 km/h (2 Bft) 97,87 %
31.05.2023 05:26 12,1 C 11,1 C 7,8 C 89 % 1025,0 hPa 0,0 l/m 0 min 0 min 0 W/m 6,4 km/h (2 Bft) 97,87 %
31.05.2023 05:28 12,1 C 11,1 C 7,8 C 89 % 1025,0 hPa 0,0 l/m 0 min 0 min 0 W/m 3,2 km/h (1 Bft) 100,00 %
31.05.2023 05:30 12,1 C 11,1 C 7,8 C 89 % 1025,0 hPa 0,0 l/m 0 min 0 min 4 W/m 3,2 km/h (1 Bft) 100,00 %
31.05.2023 05:32 12,0 C 11,1 C 7,8 C 89 % 1025,0 hPa 0,0 l/m 0 min 0 min 5 W/m 9,7 km/h (2 Bft) 100,00 %
31.05.2023 05:34 12,0 C 11,1 C 7,8 C 89 % 1025,0 hPa 0,0 l/m 0 min 0 min 5 W/m 6,4 km/h (2 Bft) 100,00 %
31.05.2023 05:36 12,0 C 11,1 C 7,8 C 89 % 1025,1 hPa 0,0 l/m 0 min 0 min 6 W/m 6,4 km/h (2 Bft) 100,00 %
31.05.2023 05:38 12,0 C 11,1 C 7,8 C 89 % 1025,0 hPa 0,0 l/m 0 min 0 min 7 W/m 6,4 km/h (2 Bft) 100,00 %
31.05.2023 05:40 11,9 C 11,1 C 7,8 C 90 % 1025,0 hPa 0,0 l/m 0 min 0 min 7 W/m 6,4 km/h (2 Bft) 100,00 %
31.05.2023 05:42 11,9 C 11,1 C 7,8 C 90 % 1025,0 hPa 0,0 l/m 0 min 0 min 8 W/m 6,4 km/h (2 Bft) 100,00 %
31.05.2023 05:44 11,9 C 11,1 C 7,8 C 90 % 1024,9 hPa 0,0 l/m 0 min 0 min 9 W/m 6,4 km/h (2 Bft) 100,00 %
31.05.2023 05:46 11,9 C 11,1 C 7,8 C 90 % 1024,9 hPa 0,0 l/m 0 min 0 min 9 W/m 6,4 km/h (2 Bft) 97,83 %
31.05.2023 05:48 11,9 C 11,1 C 7,8 C 90 % 1024,9 hPa 0,0 l/m 0 min 0 min 11 W/m 6,4 km/h (2 Bft) 100,00 %
31.05.2023 05:50 11,9 C 11,1 C 7,8 C 90 % 1024,9 hPa 0,0 l/m 0 min 0 min 11 W/m 3,2 km/h (1 Bft) 100,00 %
31.05.2023 05:52 11,9 C 11,1 C 7,8 C 90 % 1024,9 hPa 0,0 l/m 0 min 0 min 11 W/m 6,4 km/h (2 Bft) 100,00 %
31.05.2023 05:54 11,9 C 11,1 C 7,8 C 90 % 1024,9 hPa 0,0 l/m 0 min 0 min 12 W/m 3,2 km/h (1 Bft) 100,00 %
31.05.2023 05:56 11,9 C 11,1 C 7,8 C 90 % 1024,9 hPa 0,0 l/m 0 min 0 min 12 W/m 3,2 km/h (1 Bft) 100,00 %
31.05.2023 05:58 11,9 C 11,1 C 7,8 C 90 % 1024,9 hPa 0,0 l/m 0 min 0 min 12 W/m 3,2 km/h (1 Bft) 100,00 %
31.05.2023 06:00 11,9 C 11,1 C 7,8 C 90 % 1024,9 hPa 0,0 l/m 0 min 0 min 14 W/m 3,2 km/h (1 Bft) 100,00 %
31.05.2023 06:02 11,8 C 11,1 C 7,8 C 90 % 1025,0 hPa 0,0 l/m 0 min 0 min 14 W/m 3,2 km/h (1 Bft) 97,87 %
31.05.2023 06:04 11,8 C 11,1 C 7,8 C 90 % 1025,0 hPa 0,0 l/m 0 min 0 min 15 W/m 6,4 km/h (2 Bft) 100,00 %
31.05.2023 06:07 11,8 C 11,1 C 7,8 C 90 % 1025,0 hPa 0,0 l/m 0 min 0 min 16 W/m 12,9 km/h (3 Bft) 100,00 %
31.05.2023 06:08 11,8 C 11,1 C 7,8 C 90 % 1025,0 hPa 0,0 l/m 0 min 0 min 16 W/m 12,9 km/h (3 Bft) 98,98 %
31.05.2023 06:10 11,8 C 11,1 C 7,8 C 90 % 1024,9 hPa 0,0 l/m 0 min 0 min 16 W/m 6,4 km/h (2 Bft) 100,00 %
31.05.2023 06:12 11,8 C 11,1 C 7,8 C 90 % 1025,0 hPa 0,0 l/m 0 min 0 min 17 W/m 9,7 km/h (2 Bft) 100,00 %
31.05.2023 06:14 11,8 C 11,1 C 7,8 C 90 % 1024,9 hPa 0,0 l/m 0 min 0 min 18 W/m 9,7 km/h (2 Bft) 100,00 %
31.05.2023 06:16 11,8 C 11,1 C 7,8 C 90 % 1024,9 hPa 0,0 l/m 0 min 0 min 18 W/m 6,4 km/h (2 Bft) 100,00 %
31.05.2023 06:18 11,8 C 11,1 C 7,8 C 90 % 1024,9 hPa 0,0 l/m 0 min 0 min 19 W/m 9,7 km/h (2 Bft) 100,00 %
31.05.2023 06:24 11,9 C 11,7 C 7,8 C 91 % 1025,0 hPa 0,0 l/m 0 min 0 min 21 W/m 6,4 km/h (2 Bft) 100,00 %
31.05.2023 06:26 11,9 C 11,7 C 7,8 C 91 % 1025,0 hPa 0,0 l/m 0 min 0 min 21 W/m 9,7 km/h (2 Bft) 93,62 %
31.05.2023 06:28 11,9 C 11,7 C 7,8 C 91 % 1025,0 hPa 0,0 l/m 0 min 0 min 21 W/m 6,4 km/h (2 Bft) 85,37 %
31.05.2023 06:30 12,0 C 11,7 C 7,8 C 91 % 1025,0 hPa 0,0 l/m 0 min 0 min 23 W/m 3,2 km/h (1 Bft) 96,15 %
31.05.2023 06:32 12,0 C 11,7 C 7,8 C 91 % 1025,0 hPa 0,0 l/m 0 min 0 min 23 W/m 6,4 km/h (2 Bft) 95,74 %
31.05.2023 06:34 12,0 C 11,7 C 8,3 C 91 % 1025,0 hPa 0,0 l/m 0 min 0 min 23 W/m 9,7 km/h (2 Bft) 95,24 %
31.05.2023 06:36 12,1 C 11,7 C 8,3 C 91 % 1025,0 hPa 0,0 l/m 0 min 0 min 23 W/m 3,2 km/h (1 Bft) 97,87 %
31.05.2023 06:38 12,1 C 11,7 C 8,3 C 91 % 1025,0 hPa 0,0 l/m 0 min 0 min 25 W/m 3,2 km/h (1 Bft) 97,87 %
31.05.2023 06:40 12,1 C 11,7 C 8,3 C 91 % 1025,0 hPa 0,0 l/m 0 min 0 min 25 W/m 6,4 km/h (2 Bft) 97,87 %
31.05.2023 06:42 12,1 C 11,7 C 8,3 C 91 % 1025,0 hPa 0,0 l/m 0 min 0 min 25 W/m 6,4 km/h (2 Bft) 95,74 %
31.05.2023 06:44 12,2 C 11,7 C 8,3 C 91 % 1025,0 hPa 0,0 l/m 0 min 0 min 25 W/m 12,9 km/h (3 Bft) 95,74 %
31.05.2023 06:46 12,2 C 11,7 C 8,3 C 91 % 1025,0 hPa 0,0 l/m 0 min 0 min 26 W/m 6,4 km/h (2 Bft) 95,65 %
31.05.2023 06:48 12,2 C 11,7 C 8,3 C 91 % 1025,0 hPa 0,0 l/m 0 min 0 min 26 W/m 6,4 km/h (2 Bft) 93,62 %
31.05.2023 06:50 12,2 C 11,7 C 8,3 C 91 % 1025,0 hPa 0,0 l/m 0 min 0 min 26 W/m 3,2 km/h (1 Bft) 93,62 %
31.05.2023 06:52 12,3 C 11,7 C 8,3 C 91 % 1025,0 hPa 0,0 l/m 0 min 0 min 26 W/m 12,9 km/h (3 Bft) 95,74 %
31.05.2023 06:54 12,3 C 12,2 C 8,3 C 91 % 1025,0 hPa 0,0 l/m 0 min 0 min 27 W/m 6,4 km/h (2 Bft) 95,74 %
31.05.2023 06:56 12,3 C 12,2 C 8,3 C 91 % 1024,9 hPa 0,0 l/m 0 min 0 min 28 W/m 6,4 km/h (2 Bft) 95,74 %
31.05.2023 06:58 12,4 C 12,2 C 8,3 C 90 % 1024,9 hPa 0,0 l/m 0 min 0 min 28 W/m 3,2 km/h (1 Bft) 97,87 %
31.05.2023 07:00 12,4 C 12,2 C 8,3 C 90 % 1024,9 hPa 0,0 l/m 0 min 0 min 28 W/m 6,4 km/h (2 Bft) 97,83 %
31.05.2023 07:02 12,4 C 12,2 C 8,9 C 91 % 1024,9 hPa 0,0 l/m 0 min 0 min 28 W/m 6,4 km/h (2 Bft) 93,62 %
31.05.2023 07:04 12,4 C 12,2 C 8,9 C 90 % 1024,9 hPa 0,0 l/m 0 min 0 min 30 W/m 3,2 km/h (1 Bft) 97,87 %
31.05.2023 07:06 12,5 C 12,2 C 8,9 C 90 % 1025,0 hPa 0,0 l/m 0 min 0 min 30 W/m 6,4 km/h (2 Bft) 94,92 %
31.05.2023 07:08 12,5 C 12,2 C 8,9 C 90 % 1025,0 hPa 0,0 l/m 0 min 0 min 30 W/m 12,9 km/h (3 Bft) 97,14 %
31.05.2023 07:10 12,6 C 12,2 C 8,9 C 90 % 1025,1 hPa 0,0 l/m 0 min 0 min 32 W/m 19,3 km/h (3 Bft) 97,87 %
31.05.2023 07:12 12,6 C 12,2 C 8,9 C 90 % 1025,1 hPa 0,0 l/m 0 min 0 min 32 W/m 6,4 km/h (2 Bft) 97,83 %
31.05.2023 07:14 12,6 C 12,2 C 8,9 C 90 % 1025,1 hPa 0,0 l/m 0 min 0 min 32 W/m 6,4 km/h (2 Bft) 97,87 %
31.05.2023 07:16 12,7 C 12,2 C 8,9 C 90 % 1025,1 hPa 0,0 l/m 0 min 0 min 33 W/m 9,7 km/h (2 Bft) 97,87 %
31.05.2023 07:18 12,7 C 12,2 C 8,9 C 90 % 1025,1 hPa 0,0 l/m 0 min 0 min 33 W/m 3,2 km/h (1 Bft) 97,87 %
31.05.2023 07:20 12,8 C 12,8 C 8,9 C 90 % 1025,0 hPa 0,0 l/m 0 min 0 min 33 W/m 12,9 km/h (3 Bft) 97,87 %
31.05.2023 07:22 12,8 C 12,8 C 8,9 C 90 % 1025,0 hPa 0,0 l/m 0 min 0 min 35 W/m 6,4 km/h (2 Bft) 97,87 %
31.05.2023 07:24 12,8 C 12,8 C 8,9 C 90 % 1025,1 hPa 0,0 l/m 0 min 0 min 35 W/m 6,4 km/h (2 Bft) 95,74 %
31.05.2023 07:26 12,9 C 12,8 C 8,9 C 89 % 1025,1 hPa 0,0 l/m 0 min 0 min 36 W/m 3,2 km/h (1 Bft) 97,83 %
31.05.2023 07:28 12,9 C 12,8 C 9,4 C 89 % 1025,0 hPa 0,0 l/m 0 min 0 min 37 W/m 3,2 km/h (1 Bft) 93,62 %
31.05.2023 07:30 13,0 C 12,8 C 9,4 C 89 % 1025,0 hPa 0,0 l/m 0 min 0 min 37 W/m 6,4 km/h (2 Bft) 97,87 %
31.05.2023 07:32 13,1 C 12,8 C 9,4 C 89 % 1025,0 hPa 0,0 l/m 0 min 0 min 38 W/m 3,2 km/h (1 Bft) 97,87 %
31.05.2023 07:34 13,1 C 12,8 C 9,4 C 89 % 1025,1 hPa 0,0 l/m 0 min 0 min 39 W/m 9,7 km/h (2 Bft) 97,87 %
31.05.2023 07:36 13,2 C 12,8 C 9,4 C 89 % 1025,1 hPa 0,0 l/m 0 min 0 min 40 W/m 9,7 km/h (2 Bft) 97,87 %
31.05.2023 07:38 13,2 C 12,8 C 9,4 C 89 % 1025,1 hPa 0,0 l/m 0 min 0 min 40 W/m 9,7 km/h (2 Bft) 97,83 %
31.05.2023 07:40 13,3 C 13,3 C 9,4 C 88 % 1025,2 hPa 0,0 l/m 0 min 0 min 42 W/m 6,4 km/h (2 Bft) 97,87 %
31.05.2023 07:42 13,3 C 13,3 C 9,4 C 88 % 1025,1 hPa 0,0 l/m 0 min 0 min 77 W/m 12,9 km/h (3 Bft) 97,87 %
31.05.2023 07:44 13,4 C 13,3 C 9,4 C 88 % 1025,2 hPa 0,0 l/m 2 min 0 min 209 W/m 6,4 km/h (2 Bft) 97,87 %
31.05.2023 07:46 13,4 C 13,3 C 9,4 C 88 % 1025,2 hPa 0,0 l/m 0 min 0 min 141 W/m 6,4 km/h (2 Bft) 91,49 %
31.05.2023 07:48 13,5 C 13,3 C 9,4 C 88 % 1025,2 hPa 0,0 l/m 0 min 0 min 46 W/m 6,4 km/h (2 Bft) 97,87 %
31.05.2023 07:50 13,6 C 13,3 C 10,0 C 88 % 1025,2 hPa 0,0 l/m 0 min 0 min 46 W/m 12,9 km/h (3 Bft) 97,87 %
31.05.2023 07:52 13,6 C 13,9 C 10,0 C 88 % 1025,2 hPa 0,0 l/m 0 min 0 min 47 W/m 9,7 km/h (2 Bft) 97,83 %
31.05.2023 07:54 13,7 C 13,9 C 10,0 C 88 % 1025,2 hPa 0,0 l/m 0 min 0 min 67 W/m 9,7 km/h (2 Bft) 97,87 %
31.05.2023 07:56 13,7 C 13,9 C 10,0 C 87 % 1025,3 hPa 0,0 l/m 0 min 0 min 120 W/m 6,4 km/h (2 Bft) 97,87 %
31.05.2023 07:58 13,8 C 13,9 C 10,0 C 87 % 1025,3 hPa 0,0 l/m 2 min 0 min 301 W/m 12,9 km/h (3 Bft) 97,87 %
31.05.2023 08:00 13,9 C 14,4 C 10,0 C 87 % 1025,3 hPa 0,0 l/m 2 min 0 min 314 W/m 9,7 km/h (2 Bft) 97,87 %
31.05.2023 08:02 14,0 C 15,6 C 10,0 C 87 % 1025,4 hPa 0,0 l/m 2 min 0 min 321 W/m 6,4 km/h (2 Bft) 91,49 %
31.05.2023 08:04 14,1 C 16,7 C 10,6 C 87 % 1025,3 hPa 0,0 l/m 2 min 0 min 327 W/m 6,4 km/h (2 Bft) 95,65 %
31.05.2023 08:06 14,3 C 17,2 C 10,6 C 86 % 1025,3 hPa 0,0 l/m 2 min 0 min 333 W/m 16,1 km/h (3 Bft) 98,33 %
31.05.2023 08:08 14,3 C 17,8 C 10,6 C 86 % 1025,2 hPa 0,0 l/m 2 min 0 min 323 W/m 12,9 km/h (3 Bft) 100,00 %
31.05.2023 08:10 14,5 C 18,3 C 10,6 C 85 % 1025,2 hPa 0,0 l/m 2 min 0 min 284 W/m 9,7 km/h (2 Bft) 97,87 %
31.05.2023 08:12 14,7 C 18,9 C 10,6 C 85 % 1025,2 hPa 0,0 l/m 2 min 0 min 326 W/m 6,4 km/h (2 Bft) 97,87 %
31.05.2023 08:14 14,8 C 19,4 C 10,6 C 84 % 1025,2 hPa 0,0 l/m 2 min 0 min 348 W/m 9,7 km/h (2 Bft) 95,74 %
31.05.2023 08:16 15,0 C 19,4 C 10,6 C 84 % 1025,2 hPa 0,0 l/m 2 min 0 min 304 W/m 9,7 km/h (2 Bft) 100,00 %
31.05.2023 08:18 15,2 C 20,0 C 11,1 C 83 % 1025,2 hPa 0,0 l/m 2 min 0 min 329 W/m 6,4 km/h (2 Bft) 100,00 %
31.05.2023 08:20 15,3 C 20,0 C 11,1 C 83 % 1025,2 hPa 0,0 l/m 2 min 0 min 366 W/m 6,4 km/h (2 Bft) 100,00 %
31.05.2023 08:22 15,5 C 19,4 C 11,1 C 82 % 1025,2 hPa 0,0 l/m 2 min 0 min 381 W/m 22,5 km/h (4 Bft) 95,74 %
31.05.2023 08:24 15,6 C 20,0 C 11,7 C 81 % 1025,1 hPa 0,0 l/m 2 min 0 min 387 W/m 9,7 km/h (2 Bft) 97,87 %
31.05.2023 08:26 15,8 C 20,6 C 12,2 C 81 % 1025,2 hPa 0,0 l/m 2 min 0 min 392 W/m 6,4 km/h (2 Bft) 97,87 %
31.05.2023 08:28 16,0 C 20,6 C 12,2 C 80 % 1025,1 hPa 0,0 l/m 2 min 0 min 398 W/m 12,9 km/h (3 Bft) 97,87 %
31.05.2023 08:30 16,2 C 21,1 C 12,8 C 80 % 1025,1 hPa 0,0 l/m 2 min 0 min 403 W/m 12,9 km/h (3 Bft) 97,83 %
31.05.2023 08:32 16,3 C 21,7 C 12,8 C 79 % 1025,1 hPa 0,0 l/m 2 min 0 min 410 W/m 12,9 km/h (3 Bft) 97,87 %
31.05.2023 08:34 16,5 C 21,7 C 13,3 C 79 % 1025,1 hPa 0,0 l/m 2 min 0 min 415 W/m 12,9 km/h (3 Bft) 97,87 %
31.05.2023 08:36 16,7 C 22,2 C 13,3 C 78 % 1025,1 hPa 0,0 l/m 2 min 0 min 420 W/m 9,7 km/h (2 Bft) 97,87 %
31.05.2023 08:38 16,8 C 22,8 C 13,9 C 78 % 1025,1 hPa 0,0 l/m 2 min 0 min 426 W/m 12,9 km/h (3 Bft) 97,87 %
31.05.2023 08:40 16,9 C 22,8 C 13,9 C 77 % 1025,1 hPa 0,0 l/m 2 min 0 min 432 W/m 12,9 km/h (3 Bft) 97,87 %
31.05.2023 08:42 17,1 C 23,3 C 13,9 C 76 % 1025,2 hPa 0,0 l/m 2 min 0 min 437 W/m 9,7 km/h (2 Bft) 97,87 %
31.05.2023 08:44 17,2 C 23,9 C 14,4 C 76 % 1025,1 hPa 0,0 l/m 2 min 0 min 443 W/m 9,7 km/h (2 Bft) 95,65 %
31.05.2023 08:46 17,3 C 23,9 C 14,4 C 76 % 1025,1 hPa 0,0 l/m 2 min 0 min 450 W/m 16,1 km/h (3 Bft) 95,74 %
31.05.2023 08:48 17,5 C 24,4 C 14,4 C 76 % 1025,1 hPa 0,0 l/m 2 min 0 min 454 W/m 9,7 km/h (2 Bft) 97,87 %
31.05.2023 08:50 17,7 C 25,0 C 14,4 C 75 % 1025,1 hPa 0,0 l/m 2 min 0 min 459 W/m 6,4 km/h (2 Bft) 97,87 %
31.05.2023 08:52 17,8 C 25,0 C 15,0 C 75 % 1025,2 hPa 0,0 l/m 2 min 0 min 466 W/m 6,4 km/h (2 Bft) 97,87 %
31.05.2023 08:54 18,1 C 25,0 C 15,0 C 74 % 1025,2 hPa 0,0 l/m 2 min 0 min 471 W/m 9,7 km/h (2 Bft) 97,87 %
31.05.2023 08:56 18,2 C 25,0 C 15,6 C 74 % 1025,2 hPa 0,0 l/m 2 min 0 min 477 W/m 6,4 km/h (2 Bft) 97,83 %
31.05.2023 08:58 18,4 C 24,4 C 15,6 C 73 % 1025,1 hPa 0,0 l/m 2 min 0 min 482 W/m 9,7 km/h (2 Bft) 100,00 %
31.05.2023 09:00 18,6 C 24,4 C 15,6 C 72 % 1025,2 hPa 0,0 l/m 2 min 0 min 488 W/m 6,4 km/h (2 Bft) 100,00 %
31.05.2023 09:02 18,6 C 24,4 C 15,6 C 71 % 1025,1 hPa 0,0 l/m 2 min 0 min 493 W/m 12,9 km/h (3 Bft) 100,00 %
31.05.2023 09:04 18,7 C 25,0 C 15,6 C 71 % 1025,2 hPa 0,0 l/m 2 min 0 min 498 W/m 9,7 km/h (2 Bft) 100,00 %
31.05.2023 09:06 18,8 C 25,6 C 16,1 C 71 % 1025,2 hPa 0,0 l/m 2 min 0 min 505 W/m 6,4 km/h (2 Bft) 100,00 %
31.05.2023 09:08 19,0 C 25,6 C 16,1 C 71 % 1025,2 hPa 0,0 l/m 2 min 0 min 510 W/m 16,1 km/h (3 Bft) 100,00 %
31.05.2023 09:10 19,1 C 24,4 C 16,1 C 69 % 1025,2 hPa 0,0 l/m 2 min 0 min 517 W/m 6,4 km/h (2 Bft) 100,00 %
31.05.2023 09:12 19,1 C 23,9 C 16,1 C 69 % 1025,1 hPa 0,0 l/m 2 min 0 min 521 W/m 9,7 km/h (2 Bft) 100,00 %
31.05.2023 09:14 19,1 C 23,9 C 16,7 C 69 % 1025,2 hPa 0,0 l/m 2 min 0 min 527 W/m 12,9 km/h (3 Bft) 100,00 %
31.05.2023 09:16 19,2 C 24,4 C 16,7 C 70 % 1025,2 hPa 0,0 l/m 2 min 0 min 533 W/m 6,4 km/h (2 Bft) 97,87 %
31.05.2023 09:18 19,2 C 24,4 C 17,2 C 70 % 1025,1 hPa 0,0 l/m 2 min 0 min 538 W/m 9,7 km/h (2 Bft) 100,00 %
31.05.2023 09:20 19,2 C 25,0 C 17,2 C 70 % 1025,1 hPa 0,0 l/m 2 min 0 min 543 W/m 6,4 km/h (2 Bft) 100,00 %
31.05.2023 09:22 19,2 C 25,0 C 17,2 C 69 % 1025,2 hPa 0,0 l/m 2 min 0 min 547 W/m 9,7 km/h (2 Bft) 100,00 %
31.05.2023 09:24 19,1 C 25,0 C 17,8 C 70 % 1025,1 hPa 0,0 l/m 2 min 0 min 554 W/m 6,4 km/h (2 Bft) 100,00 %
31.05.2023 09:26 19,2 C 25,0 C 17,8 C 70 % 1025,1 hPa 0,0 l/m 2 min 0 min 558 W/m 6,4 km/h (2 Bft) 100,00 %
31.05.2023 09:28 19,3 C 25,0 C 18,3 C 70 % 1025,1 hPa 0,0 l/m 2 min 0 min 565 W/m 6,4 km/h (2 Bft) 100,00 %
31.05.2023 09:30 19,4 C 25,0 C 18,3 C 69 % 1025,1 hPa 0,0 l/m 2 min 0 min 570 W/m 9,7 km/h (2 Bft) 100,00 %
31.05.2023 09:32 19,4 C 24,4 C 18,3 C 68 % 1025,1 hPa 0,0 l/m 2 min 0 min 576 W/m 12,9 km/h (3 Bft) 97,87 %
31.05.2023 09:34 19,4 C 25,0 C 18,3 C 69 % 1025,1 hPa 0,0 l/m 2 min 0 min 581 W/m 6,4 km/h (2 Bft) 100,00 %
31.05.2023 09:36 19,6 C 24,4 C 18,3 C 68 % 1025,1 hPa 0,0 l/m 2 min 0 min 587 W/m 16,1 km/h (3 Bft) 100,00 %
31.05.2023 09:38 19,6 C 25,0 C 18,3 C 69 % 1025,1 hPa 0,0 l/m 2 min 0 min 592 W/m 6,4 km/h (2 Bft) 100,00 %
31.05.2023 09:40 19,6 C 24,4 C 18,9 C 68 % 1025,1 hPa 0,0 l/m 2 min 0 min 598 W/m 12,9 km/h (3 Bft) 100,00 %
31.05.2023 09:42 19,6 C 24,4 C 18,9 C 69 % 1025,1 hPa 0,0 l/m 2 min 0 min 603 W/m 16,1 km/h (3 Bft) 100,00 %
31.05.2023 09:44 19,5 C 23,9 C 18,9 C 68 % 1025,1 hPa 0,0 l/m 2 min 0 min 607 W/m 12,9 km/h (3 Bft) 100,00 %
31.05.2023 09:46 19,6 C 24,4 C 18,9 C 69 % 1025,0 hPa 0,0 l/m 2 min 0 min 613 W/m 6,4 km/h (2 Bft) 100,00 %
31.05.2023 09:48 19,7 C 25,0 C 18,9 C 69 % 1025,0 hPa 0,0 l/m 2 min 0 min 618 W/m 9,7 km/h (2 Bft) 100,00 %
31.05.2023 09:50 19,9 C 25,0 C 18,9 C 69 % 1025,1 hPa 0,0 l/m 2 min 0 min 623 W/m 9,7 km/h (2 Bft) 100,00 %
31.05.2023 09:52 20,1 C 25,6 C 19,4 C 68 % 1025,0 hPa 0,0 l/m 2 min 0 min 627 W/m 3,2 km/h (1 Bft) 97,87 %
31.05.2023 09:54 20,2 C 25,6 C 19,4 C 68 % 1025,0 hPa 0,0 l/m 2 min 0 min 634 W/m 6,4 km/h (2 Bft) 100,00 %
31.05.2023 09:56 20,4 C 25,6 C 20,0 C 67 % 1025,0 hPa 0,0 l/m 2 min 0 min 641 W/m 6,4 km/h (2 Bft) 95,74 %
31.05.2023 09:58 20,5 C 25,6 C 20,0 C 66 % 1025,1 hPa 0,0 l/m 2 min 0 min 646 W/m 16,1 km/h (3 Bft) 97,87 %
31.05.2023 10:00 20,6 C 25,0 C 20,0 C 66 % 1025,1 hPa 0,0 l/m 2 min 0 min 649 W/m 12,9 km/h (3 Bft) 97,83 %
31.05.2023 10:02 20,7 C 25,0 C 20,0 C 66 % 1025,0 hPa 0,0 l/m 2 min 0 min 652 W/m 19,3 km/h (3 Bft) 93,62 %
31.05.2023 10:04 20,8 C 25,6 C 20,0 C 65 % 1025,0 hPa 0,0 l/m 2 min 0 min 660 W/m 6,4 km/h (2 Bft) 95,74 %
31.05.2023 10:06 20,9 C 25,6 C 20,0 C 64 % 1025,0 hPa 0,0 l/m 2 min 0 min 664 W/m 16,1 km/h (3 Bft) 98,31 %
31.05.2023 10:08 20,9 C 25,6 C 20,0 C 65 % 1025,0 hPa 0,0 l/m 2 min 0 min 668 W/m 9,7 km/h (2 Bft) 97,14 %
31.05.2023 10:10 21,0 C 25,6 C 20,0 C 64 % 1025,0 hPa 0,0 l/m 2 min 0 min 675 W/m 9,7 km/h (2 Bft) 93,62 %
31.05.2023 10:12 21,1 C 25,0 C 20,0 C 64 % 1025,0 hPa 0,0 l/m 2 min 0 min 680 W/m 12,9 km/h (3 Bft) 95,65 %
31.05.2023 10:14 21,0 C 25,0 C 20,6 C 64 % 1024,9 hPa 0,0 l/m 2 min 0 min 686 W/m 9,7 km/h (2 Bft) 97,87 %
31.05.2023 10:16 21,1 C 24,4 C 20,6 C 64 % 1024,9 hPa 0,0 l/m 2 min 0 min 688 W/m 9,7 km/h (2 Bft) 95,74 %
31.05.2023 10:18 21,1 C 23,9 C 20,6 C 64 % 1024,9 hPa 0,0 l/m 2 min 0 min 694 W/m 9,7 km/h (2 Bft) 97,87 %
31.05.2023 10:20 21,1 C 23,9 C 20,6 C 64 % 1024,8 hPa 0,0 l/m 2 min 0 min 700 W/m 16,1 km/h (3 Bft) 93,62 %
31.05.2023 10:22 21,1 C 23,9 C 20,6 C 64 % 1024,9 hPa 0,0 l/m 2 min 0 min 704 W/m 9,7 km/h (2 Bft) 97,92 %
31.05.2023 10:24 21,2 C 24,4 C 20,6 C 64 % 1024,8 hPa 0,0 l/m 2 min 0 min 707 W/m 9,7 km/h (2 Bft) 95,74 %
31.05.2023 10:26 21,2 C 24,4 C 20,6 C 64 % 1024,8 hPa 0,0 l/m 2 min 0 min 708 W/m 9,7 km/h (2 Bft) 93,48 %
31.05.2023 10:28 21,3 C 24,4 C 20,6 C 63 % 1024,9 hPa 0,0 l/m 2 min 0 min 715 W/m 9,7 km/h (2 Bft) 95,74 %
31.05.2023 10:30 21,3 C 24,4 C 20,6 C 63 % 1024,8 hPa 0,0 l/m 2 min 0 min 718 W/m 12,9 km/h (3 Bft) 95,74 %
31.05.2023 10:32 21,3 C 23,9 C 20,6 C 63 % 1024,8 hPa 0,0 l/m 2 min 0 min 725 W/m 12,9 km/h (3 Bft) 95,74 %
31.05.2023 10:34 21,3 C 23,3 C 20,6 C 63 % 1024,8 hPa 0,0 l/m 2 min 0 min 728 W/m 9,7 km/h (2 Bft) 95,74 %
31.05.2023 10:36 21,4 C 23,3 C 20,6 C 63 % 1024,8 hPa 0,0 l/m 2 min 0 min 734 W/m 9,7 km/h (2 Bft) 93,62 %
31.05.2023 10:38 21,5 C 23,3 C 20,6 C 63 % 1024,8 hPa 0,0 l/m 2 min 0 min 736 W/m 12,9 km/h (3 Bft) 95,65 %
31.05.2023 10:40 21,6 C 23,3 C 20,0 C 63 % 1024,7 hPa 0,0 l/m 2 min 0 min 741 W/m 9,7 km/h (2 Bft) 97,87 %
31.05.2023 10:42 21,5 C 22,8 C 20,6 C 62 % 1024,7 hPa 0,0 l/m 2 min 0 min 749 W/m 12,9 km/h (3 Bft) 97,87 %
31.05.2023 10:44 21,6 C 23,3 C 20,6 C 62 % 1024,7 hPa 0,0 l/m 2 min 0 min 752 W/m 16,1 km/h (3 Bft) 97,87 %
31.05.2023 10:46 21,6 C 23,3 C 21,1 C 62 % 1024,7 hPa 0,0 l/m 2 min 0 min 756 W/m 16,1 km/h (3 Bft) 93,62 %
31.05.2023 10:48 21,7 C 23,3 C 21,1 C 63 % 1024,7 hPa 0,0 l/m 2 min 0 min 763 W/m 9,7 km/h (2 Bft) 97,87 %
31.05.2023 10:50 21,8 C 23,3 C 20,0 C 62 % 1024,8 hPa 0,0 l/m 2 min 0 min 767 W/m 12,9 km/h (3 Bft) 97,83 %
31.05.2023 10:52 21,9 C 23,9 C 20,0 C 62 % 1024,7 hPa 0,0 l/m 2 min 0 min 771 W/m 12,9 km/h (3 Bft) 95,74 %
31.05.2023 10:54 22,0 C 23,9 C 20,0 C 60 % 1024,7 hPa 0,0 l/m 2 min 0 min 774 W/m 12,9 km/h (3 Bft) 95,74 %
31.05.2023 10:56 22,1 C 24,4 C 19,4 C 60 % 1024,7 hPa 0,0 l/m 2 min 0 min 778 W/m 9,7 km/h (2 Bft) 93,62 %
31.05.2023 10:58 22,2 C 25,0 C 19,4 C 60 % 1024,7 hPa 0,0 l/m 2 min 0 min 781 W/m 9,7 km/h (2 Bft) 100,00 %
31.05.2023 11:00 22,3 C 25,0 C 19,4 C 59 % 1024,7 hPa 0,0 l/m 2 min 0 min 788 W/m 16,1 km/h (3 Bft) 100,00 %
31.05.2023 11:02 22,3 C 25,0 C 18,9 C 59 % 1024,7 hPa 0,0 l/m 2 min 0 min 792 W/m 9,7 km/h (2 Bft) 97,87 %
31.05.2023 11:04 22,4 C 25,0 C 18,9 C 58 % 1024,6 hPa 0,0 l/m 2 min 0 min 797 W/m 9,7 km/h (2 Bft) 97,83 %
31.05.2023 11:06 22,5 C 25,6 C 18,9 C 58 % 1024,6 hPa 0,0 l/m 2 min 0 min 800 W/m 12,9 km/h (3 Bft) 100,00 %
31.05.2023 11:08 22,6 C 25,6 C 18,9 C 57 % 1024,6 hPa 0,0 l/m 2 min 0 min 804 W/m 12,9 km/h (3 Bft) 100,00 %
31.05.2023 11:10 22,7 C 26,1 C 18,9 C 58 % 1024,6 hPa 0,0 l/m 2 min 0 min 808 W/m 9,7 km/h (2 Bft) 100,00 %
31.05.2023 11:12 22,7 C 26,1 C 19,4 C 58 % 1024,6 hPa 0,0 l/m 2 min 0 min 806 W/m 19,3 km/h (3 Bft) 100,00 %
31.05.2023 11:14 22,7 C 25,6 C 19,4 C 58 % 1024,7 hPa 0,0 l/m 2 min 0 min 808 W/m 12,9 km/h (3 Bft) 97,87 %
31.05.2023 11:16 22,7 C 25,0 C 19,4 C 57 % 1024,6 hPa 0,0 l/m 2 min 0 min 824 W/m 9,7 km/h (2 Bft) 95,65 %
31.05.2023 11:18 22,8 C 26,1 C 19,4 C 58 % 1024,6 hPa 0,0 l/m 2 min 0 min 818 W/m 6,4 km/h (2 Bft) 97,87 %
31.05.2023 11:20 22,9 C 26,7 C 20,0 C 58 % 1024,6 hPa 0,0 l/m 2 min 0 min 824 W/m 9,7 km/h (2 Bft) 97,87 %
31.05.2023 11:22 23,1 C 27,2 C 20,6 C 56 % 1024,5 hPa 0,0 l/m 2 min 0 min 830 W/m 12,9 km/h (3 Bft) 97,87 %
31.05.2023 11:24 23,2 C 26,7 C 21,1 C 56 % 1024,6 hPa 0,0 l/m 2 min 0 min 832 W/m 19,3 km/h (3 Bft) 97,87 %
31.05.2023 11:26 23,2 C 26,7 C 21,1 C 56 % 1024,5 hPa 0,0 l/m 2 min 0 min 836 W/m 9,7 km/h (2 Bft) 97,87 %
31.05.2023 11:28 23,3 C 27,2 C 22,2 C 57 % 1024,5 hPa 0,0 l/m 2 min 0 min 838 W/m 12,9 km/h (3 Bft) 97,87 %
31.05.2023 11:30 23,4 C 27,2 C 22,8 C 56 % 1024,4 hPa 0,0 l/m 2 min 0 min 840 W/m 6,4 km/h (2 Bft) 97,83 %
31.05.2023 11:32 23,4 C 27,2 C 23,3 C 54 % 1024,4 hPa 0,0 l/m 2 min 0 min 848 W/m 12,9 km/h (3 Bft) 97,87 %
31.05.2023 11:34 23,5 C 27,2 C 23,3 C 54 % 1024,3 hPa 0,0 l/m 2 min 0 min 852 W/m 12,9 km/h (3 Bft) 97,87 %
31.05.2023 11:36 23,6 C 27,8 C 22,8 C 55 % 1024,3 hPa 0,0 l/m 2 min 0 min 854 W/m 19,3 km/h (3 Bft) 97,87 %
31.05.2023 11:38 23,6 C 28,3 C 22,8 C 53 % 1024,3 hPa 0,0 l/m 2 min 0 min 857 W/m 12,9 km/h (3 Bft) 95,74 %
31.05.2023 11:40 23,7 C 28,9 C 23,9 C 53 % 1024,2 hPa 0,0 l/m 2 min 0 min 865 W/m 6,4 km/h (2 Bft) 97,87 %
31.05.2023 11:42 23,7 C 28,9 C 24,4 C 54 % 1024,3 hPa 0,0 l/m 2 min 0 min 864 W/m 12,9 km/h (3 Bft) 95,74 %
31.05.2023 11:44 23,8 C 28,9 C 23,9 C 53 % 1024,2 hPa 0,0 l/m 2 min 0 min 866 W/m 9,7 km/h (2 Bft) 95,65 %
31.05.2023 11:46 23,8 C 28,9 C 23,9 C 53 % 1024,2 hPa 0,0 l/m 2 min 0 min 870 W/m 9,7 km/h (2 Bft) 97,87 %
31.05.2023 11:48 23,8 C 28,3 C 23,9 C 53 % 1024,2 hPa 0,0 l/m 2 min 0 min 873 W/m 9,7 km/h (2 Bft) 95,74 %
31.05.2023 11:50 23,7 C 27,2 C 24,4 C 52 % 1024,2 hPa 0,0 l/m 2 min 0 min 874 W/m 12,9 km/h (3 Bft) 97,87 %
31.05.2023 11:52 23,7 C 27,2 C 23,9 C 51 % 1024,2 hPa 0,0 l/m 2 min 0 min 876 W/m 12,9 km/h (3 Bft) 95,74 %
31.05.2023 11:54 23,7 C 27,8 C 23,3 C 52 % 1024,2 hPa 0,0 l/m 2 min 0 min 876 W/m 16,1 km/h (3 Bft) 97,87 %
31.05.2023 11:56 23,8 C 27,8 C 22,8 C 51 % 1024,1 hPa 0,0 l/m 2 min 0 min 884 W/m 16,1 km/h (3 Bft) 97,83 %
31.05.2023 11:58 23,8 C 28,3 C 22,8 C 50 % 1024,2 hPa 0,0 l/m 2 min 0 min 886 W/m 12,9 km/h (3 Bft) 97,87 %
31.05.2023 12:00 23,9 C 28,3 C 22,2 C 49 % 1024,1 hPa 0,0 l/m 2 min 0 min 888 W/m 16,1 km/h (3 Bft) 97,87 %
31.05.2023 12:02 24,1 C 28,3 C 22,2 C 47 % 1024,1 hPa 0,0 l/m 2 min 0 min 890 W/m 16,1 km/h (3 Bft) 95,74 %
31.05.2023 12:04 24,2 C 28,3 C 22,8 C 48 % 1024,2 hPa 0,0 l/m 2 min 0 min 892 W/m 16,1 km/h (3 Bft) 95,74 %
31.05.2023 12:08 24,2 C 28,9 C 22,8 C 47 % 1024,0 hPa 0,0 l/m 4 min 0 min 897 W/m 19,3 km/h (3 Bft) 96,43 %
31.05.2023 12:12 24,2 C 28,3 C 23,9 C 47 % 1024,0 hPa 0,0 l/m 4 min 0 min 902 W/m 9,7 km/h (2 Bft) 94,74 %
31.05.2023 12:14 24,3 C 28,3 C 23,9 C 46 % 1024,0 hPa 0,0 l/m 2 min 0 min 903 W/m 16,1 km/h (3 Bft) 97,87 %
31.05.2023 12:16 24,4 C 28,9 C 25,0 C 45 % 1024,0 hPa 0,0 l/m 2 min 0 min 907 W/m 9,7 km/h (2 Bft) 96,36 %
31.05.2023 12:18 24,4 C 28,9 C 25,6 C 46 % 1024,0 hPa 0,0 l/m 2 min 0 min 907 W/m 12,9 km/h (3 Bft) 97,87 %
31.05.2023 12:20 24,5 C 29,4 C 26,1 C 47 % 1023,9 hPa 0,0 l/m 2 min 0 min 910 W/m 9,7 km/h (2 Bft) 97,83 %
31.05.2023 12:22 24,6 C 29,4 C 26,7 C 46 % 1023,9 hPa 0,0 l/m 2 min 0 min 908 W/m 19,3 km/h (3 Bft) 100,00 %
31.05.2023 12:24 24,4 C 28,3 C 27,2 C 45 % 1023,9 hPa 0,0 l/m 2 min 0 min 912 W/m 22,5 km/h (4 Bft) 100,00 %
31.05.2023 12:26 24,4 C 28,9 C 26,7 C 47 % 1023,8 hPa 0,0 l/m 2 min 0 min 916 W/m 19,3 km/h (3 Bft) 97,87 %
31.05.2023 12:28 24,4 C 28,9 C 26,7 C 47 % 1023,9 hPa 0,0 l/m 2 min 0 min 919 W/m 12,9 km/h (3 Bft) 95,74 %
31.05.2023 12:30 24,5 C 29,4 C 26,7 C 47 % 1023,9 hPa 0,0 l/m 2 min 0 min 916 W/m 16,1 km/h (3 Bft) 92,59 %
31.05.2023 12:32 24,6 C 29,4 C 26,7 C 48 % 1023,9 hPa 0,0 l/m 2 min 0 min 922 W/m 19,3 km/h (3 Bft) 96,00 %
31.05.2023 12:34 24,7 C 29,4 C 26,7 C 46 % 1023,9 hPa 0,0 l/m 2 min 0 min 921 W/m 12,9 km/h (3 Bft) 94,44 %
31.05.2023 12:36 24,7 C 29,4 C 27,8 C 46 % 1023,8 hPa 0,0 l/m 2 min 0 min 923 W/m 16,1 km/h (3 Bft) 95,74 %
31.05.2023 12:38 24,8 C 30,6 C 27,8 C 48 % 1023,8 hPa 0,0 l/m 2 min 0 min 925 W/m 9,7 km/h (2 Bft) 95,74 %
31.05.2023 12:40 24,9 C 30,0 C 27,8 C 47 % 1023,8 hPa 0,0 l/m 2 min 0 min 927 W/m 9,7 km/h (2 Bft) 94,44 %
31.05.2023 12:42 25,0 C 30,0 C 27,8 C 47 % 1023,8 hPa 0,0 l/m 2 min 0 min 930 W/m 16,1 km/h (3 Bft) 94,00 %
31.05.2023 12:44 25,0 C 30,0 C 26,7 C 47 % 1023,8 hPa 0,0 l/m 2 min 0 min 932 W/m 19,3 km/h (3 Bft) 95,74 %
31.05.2023 12:46 25,1 C 30,6 C 26,7 C 47 % 1023,8 hPa 0,0 l/m 2 min 0 min 932 W/m 16,1 km/h (3 Bft) 97,83 %
31.05.2023 12:48 25,1 C 30,6 C 26,7 C 47 % 1023,8 hPa 0,0 l/m 2 min 0 min 934 W/m 12,9 km/h (3 Bft) 95,74 %
31.05.2023 12:50 25,1 C 30,6 C 26,7 C 47 % 1023,7 hPa 0,0 l/m 2 min 0 min 933 W/m 9,7 km/h (2 Bft) 95,74 %
31.05.2023 12:52 25,1 C 30,0 C 27,8 C 47 % 1023,7 hPa 0,0 l/m 2 min 0 min 926 W/m 12,9 km/h (3 Bft) 94,59 %
31.05.2023 12:54 25,1 C 30,0 C 26,7 C 47 % 1023,7 hPa 0,0 l/m 2 min 0 min 930 W/m 16,1 km/h (3 Bft) 93,62 %
31.05.2023 12:56 25,1 C 30,6 C 26,7 C 47 % 1023,6 hPa 0,0 l/m 2 min 0 min 931 W/m 9,7 km/h (2 Bft) 95,74 %
31.05.2023 12:58 25,2 C 31,1 C 27,8 C 47 % 1023,7 hPa 0,0 l/m 2 min 0 min 929 W/m 12,9 km/h (3 Bft) 91,30 %
31.05.2023 13:00 25,2 C 30,6 C 26,7 C 47 % 1023,7 hPa 0,0 l/m 2 min 0 min 931 W/m 22,5 km/h (4 Bft) 95,74 %
31.05.2023 13:00 25,2 C 30,6 C 26,7 C 47 % 1023,7 hPa 0,0 l/m 0 min 0 min 931 W/m 22,5 km/h (4 Bft) 97,37 %
31.05.2023 13:06 25,0 C 29,4 C 27,2 C 49 % 1023,7 hPa 0,0 l/m 5 min 0 min 930 W/m 16,1 km/h (3 Bft) 100,00 %
31.05.2023 13:08 25,0 C 29,4 C 27,2 C 48 % 1023,7 hPa 0,0 l/m 2 min 0 min 929 W/m 16,1 km/h (3 Bft) 97,83 %
31.05.2023 13:10 24,9 C 29,4 C 27,2 C 48 % 1023,7 hPa 0,0 l/m 2 min 0 min 925 W/m 16,1 km/h (3 Bft) 97,92 %
31.05.2023 13:12 24,8 C 28,9 C 27,2 C 46 % 1023,6 hPa 0,0 l/m 2 min 0 min 924 W/m 19,3 km/h (3 Bft) 100,00 %
31.05.2023 13:14 24,7 C 28,9 C 27,2 C 47 % 1023,5 hPa 0,0 l/m 2 min 0 min 936 W/m 19,3 km/h (3 Bft) 100,00 %
31.05.2023 13:16 24,8 C 29,4 C 27,8 C 49 % 1023,6 hPa 0,0 l/m 2 min 0 min 940 W/m 12,9 km/h (3 Bft) 97,87 %
31.05.2023 13:18 24,9 C 30,0 C 27,2 C 47 % 1023,6 hPa 0,0 l/m 2 min 0 min 944 W/m 19,3 km/h (3 Bft) 97,87 %
31.05.2023 13:20 24,9 C 30,6 C 27,8 C 48 % 1023,6 hPa 0,0 l/m 2 min 0 min 940 W/m 16,1 km/h (3 Bft) 100,00 %
31.05.2023 13:22 25,1 C 31,1 C 27,2 C 48 % 1023,6 hPa 0,0 l/m 2 min 0 min 941 W/m 19,3 km/h (3 Bft) 100,00 %
31.05.2023 13:24 25,1 C 31,1 C 27,2 C 48 % 1023,6 hPa 0,0 l/m 2 min 0 min 943 W/m 12,9 km/h (3 Bft) 100,00 %
31.05.2023 13:26 25,2 C 30,6 C 27,8 C 47 % 1023,6 hPa 0,0 l/m 2 min 0 min 943 W/m 9,7 km/h (2 Bft) 100,00 %
31.05.2023 13:28 25,2 C 31,1 C 27,8 C 47 % 1023,6 hPa 0,0 l/m 2 min 0 min 941 W/m 12,9 km/h (3 Bft) 100,00 %
31.05.2023 13:30 25,2 C 31,1 C 27,2 C 48 % 1023,5 hPa 0,0 l/m 2 min 0 min 942 W/m 16,1 km/h (3 Bft) 100,00 %
31.05.2023 13:32 25,3 C 30,6 C 26,7 C 47 % 1023,5 hPa 0,0 l/m 2 min 0 min 945 W/m 16,1 km/h (3 Bft) 100,00 %
31.05.2023 13:34 25,3 C 31,7 C 27,2 C 46 % 1023,5 hPa 0,0 l/m 2 min 0 min 943 W/m 12,9 km/h (3 Bft) 100,00 %
31.05.2023 13:36 25,4 C 31,7 C 27,8 C 46 % 1023,4 hPa 0,0 l/m 2 min 0 min 945 W/m 12,9 km/h (3 Bft) 100,00 %
31.05.2023 13:38 25,4 C 31,1 C 28,3 C 46 % 1023,4 hPa 0,0 l/m 2 min 0 min 947 W/m 19,3 km/h (3 Bft) 100,00 %
31.05.2023 13:40 25,5 C 31,1 C 28,3 C 47 % 1023,5 hPa 0,0 l/m 2 min 0 min 944 W/m 9,7 km/h (2 Bft) 100,00 %
31.05.2023 13:42 25,5 C 31,1 C 27,2 C 46 % 1023,4 hPa 0,0 l/m 2 min 0 min 944 W/m 12,9 km/h (3 Bft) 100,00 %
31.05.2023 13:44 25,5 C 31,1 C 28,3 C 47 % 1023,5 hPa 0,0 l/m 2 min 0 min 947 W/m 16,1 km/h (3 Bft) 100,00 %
31.05.2023 13:46 25,5 C 31,7 C 27,8 C 46 % 1023,4 hPa 0,0 l/m 2 min 0 min 947 W/m 16,1 km/h (3 Bft) 95,74 %
31.05.2023 13:48 25,6 C 31,7 C 27,2 C 46 % 1023,4 hPa 0,0 l/m 2 min 0 min 942 W/m 19,3 km/h (3 Bft) 100,00 %
31.05.2023 13:50 25,6 C 31,7 C 26,7 C 46 % 1023,4 hPa 0,0 l/m 2 min 0 min 946 W/m 16,1 km/h (3 Bft) 100,00 %
31.05.2023 13:52 25,6 C 31,1 C 25,6 C 46 % 1023,3 hPa 0,0 l/m 2 min 0 min 946 W/m 19,3 km/h (3 Bft) 100,00 %
31.05.2023 13:54 25,6 C 32,2 C 23,9 C 45 % 1023,3 hPa 0,0 l/m 2 min 0 min 944 W/m 19,3 km/h (3 Bft) 100,00 %
31.05.2023 13:56 25,6 C 32,2 C 23,3 C 46 % 1023,3 hPa 0,0 l/m 2 min 0 min 943 W/m 12,9 km/h (3 Bft) 100,00 %
31.05.2023 13:58 25,7 C 32,8 C 22,8 C 46 % 1023,3 hPa 0,0 l/m 2 min 0 min 945 W/m 19,3 km/h (3 Bft) 100,00 %
31.05.2023 14:00 25,7 C 32,8 C 22,2 C 46 % 1023,3 hPa 0,0 l/m 2 min 0 min 945 W/m 12,9 km/h (3 Bft) 100,00 %
31.05.2023 14:02 25,8 C 32,2 C 22,2 C 46 % 1023,3 hPa 0,0 l/m 2 min 0 min 941 W/m 16,1 km/h (3 Bft) 100,00 %
31.05.2023 14:04 25,8 C 32,8 C 22,8 C 45 % 1023,2 hPa 0,0 l/m 2 min 0 min 940 W/m 12,9 km/h (3 Bft) 100,00 %
31.05.2023 14:06 25,9 C 32,8 C 22,2 C 45 % 1023,2 hPa 0,0 l/m 2 min 0 min 937 W/m 19,3 km/h (3 Bft) 100,00 %
31.05.2023 14:08 25,9 C 32,8 C 22,2 C 44 % 1023,2 hPa 0,0 l/m 2 min 0 min 941 W/m 16,1 km/h (3 Bft) 100,00 %
31.05.2023 14:10 25,9 C 32,8 C 22,2 C 45 % 1023,2 hPa 0,0 l/m 2 min 0 min 939 W/m 12,9 km/h (3 Bft) 97,87 %
31.05.2023 14:12 25,9 C 33,3 C 21,7 C 45 % 1023,2 hPa 0,0 l/m 2 min 0 min 938 W/m 12,9 km/h (3 Bft) 100,00 %
31.05.2023 14:14 26,0 C 33,3 C 22,2 C 45 % 1023,1 hPa 0,0 l/m 2 min 0 min 940 W/m 12,9 km/h (3 Bft) 100,00 %
31.05.2023 14:16 26,1 C 33,3 C 21,7 C 45 % 1023,2 hPa 0,0 l/m 2 min 0 min 937 W/m 19,3 km/h (3 Bft) 100,00 %
31.05.2023 14:18 26,1 C 33,3 C 21,7 C 45 % 1023,1 hPa 0,0 l/m 2 min 0 min 934 W/m 19,3 km/h (3 Bft) 95,65 %
31.05.2023 14:20 26,1 C 32,8 C 21,7 C 45 % 1023,1 hPa 0,0 l/m 2 min 0 min 934 W/m 16,1 km/h (3 Bft) 97,87 %
31.05.2023 14:22 26,1 C 33,3 C 21,1 C 46 % 1023,1 hPa 0,0 l/m 2 min 0 min 930 W/m 16,1 km/h (3 Bft) 95,74 %
31.05.2023 14:24 26,1 C 32,8 C 21,7 C 46 % 1023,1 hPa 0,0 l/m 2 min 0 min 933 W/m 16,1 km/h (3 Bft) 100,00 %
31.05.2023 14:26 26,1 C 32,2 C 21,1 C 44 % 1023,1 hPa 0,0 l/m 2 min 0 min 929 W/m 16,1 km/h (3 Bft) 100,00 %
31.05.2023 14:28 26,1 C 32,8 C 21,1 C 45 % 1023,0 hPa 0,0 l/m 2 min 0 min 928 W/m 12,9 km/h (3 Bft) 97,87 %
31.05.2023 14:30 26,1 C 32,8 C 21,1 C 46 % 1023,1 hPa 0,0 l/m 2 min 0 min 930 W/m 19,3 km/h (3 Bft) 100,00 %
31.05.2023 14:32 26,2 C 32,8 C 21,1 C 45 % 1023,0 hPa 0,0 l/m 2 min 0 min 928 W/m 12,9 km/h (3 Bft) 97,83 %
31.05.2023 14:34 26,2 C 32,8 C 21,1 C 46 % 1022,9 hPa 0,0 l/m 2 min 0 min 921 W/m 16,1 km/h (3 Bft) 95,74 %
31.05.2023 14:36 26,2 C 32,8 C 21,1 C 46 % 1023,0 hPa 0,0 l/m 2 min 0 min 920 W/m 16,1 km/h (3 Bft) 95,74 %
31.05.2023 14:38 26,2 C 32,2 C 21,1 C 46 % 1022,9 hPa 0,0 l/m 2 min 0 min 917 W/m 9,7 km/h (2 Bft) 93,62 %
31.05.2023 14:40 26,2 C 32,2 C 21,1 C 45 % 1022,9 hPa 0,0 l/m 2 min 0 min 919 W/m 12,9 km/h (3 Bft) 95,74 %
31.05.2023 14:42 26,2 C 32,2 C 21,1 C 45 % 1023,0 hPa 0,0 l/m 2 min 0 min 919 W/m 16,1 km/h (3 Bft) 95,74 %
31.05.2023 14:44 26,3 C 32,2 C 21,1 C 46 % 1023,0 hPa 0,0 l/m 2 min 0 min 918 W/m 12,9 km/h (3 Bft) 93,48 %
31.05.2023 14:46 26,3 C 31,7 C 21,1 C 45 % 1022,9 hPa 0,0 l/m 2 min 0 min 919 W/m 19,3 km/h (3 Bft) 95,74 %
31.05.2023 14:48 26,3 C 32,2 C 21,1 C 45 % 1022,9 hPa 0,0 l/m 2 min 0 min 916 W/m 12,9 km/h (3 Bft) 95,74 %
31.05.2023 14:50 26,3 C 32,2 C 21,1 C 46 % 1022,9 hPa 0,0 l/m 2 min 0 min 908 W/m 16,1 km/h (3 Bft) 95,74 %
31.05.2023 14:52 26,3 C 32,2 C 21,1 C 45 % 1022,9 hPa 0,0 l/m 2 min 0 min 908 W/m 19,3 km/h (3 Bft) 95,74 %
31.05.2023 14:54 26,2 C 32,2 C 21,1 C 46 % 1022,8 hPa 0,0 l/m 2 min 0 min 905 W/m 12,9 km/h (3 Bft) 95,74 %
31.05.2023 14:56 26,2 C 31,7 C 21,1 C 45 % 1022,9 hPa 0,0 l/m 2 min 0 min 906 W/m 25,7 km/h (4 Bft) 91,30 %
31.05.2023 14:58 26,1 C 30,6 C 21,1 C 45 % 1022,8 hPa 0,0 l/m 2 min 0 min 903 W/m 19,3 km/h (3 Bft) 91,49 %
31.05.2023 15:00 26,1 C 31,1 C 21,1 C 46 % 1022,8 hPa 0,0 l/m 2 min 0 min 898 W/m 19,3 km/h (3 Bft) 93,62 %
31.05.2023 15:02 26,1 C 32,2 C 21,1 C 47 % 1022,8 hPa 0,0 l/m 2 min 0 min 900 W/m 16,1 km/h (3 Bft) 93,62 %
31.05.2023 15:04 26,2 C 32,2 C 21,1 C 46 % 1022,7 hPa 0,0 l/m 2 min 0 min 897 W/m 9,7 km/h (2 Bft) 95,74 %
31.05.2023 15:06 26,3 C 32,8 C 21,7 C 47 % 1022,7 hPa 0,0 l/m 2 min 0 min 892 W/m 19,3 km/h (3 Bft) 91,49 %
31.05.2023 15:08 26,4 C 32,8 C 21,7 C 46 % 1022,7 hPa 0,0 l/m 2 min 0 min 887 W/m 16,1 km/h (3 Bft) 95,74 %
31.05.2023 15:10 26,4 C 32,2 C 21,7 C 45 % 1022,7 hPa 0,0 l/m 2 min 0 min 886 W/m 16,1 km/h (3 Bft) 95,65 %
31.05.2023 15:12 26,5 C 32,8 C 21,7 C 46 % 1022,7 hPa 0,0 l/m 2 min 0 min 885 W/m 12,9 km/h (3 Bft) 93,62 %
31.05.2023 15:14 26,6 C 32,2 C 21,7 C 45 % 1022,7 hPa 0,0 l/m 2 min 0 min 880 W/m 16,1 km/h (3 Bft) 93,62 %
31.05.2023 15:16 26,6 C 32,8 C 21,7 C 45 % 1022,6 hPa 0,0 l/m 2 min 0 min 875 W/m 9,7 km/h (2 Bft) 93,62 %
31.05.2023 15:18 26,7 C 32,2 C 21,7 C 46 % 1022,6 hPa 0,0 l/m 2 min 0 min 879 W/m 22,5 km/h (4 Bft) 93,62 %
31.05.2023 15:20 26,7 C 31,7 C 21,7 C 45 % 1022,5 hPa 0,0 l/m 2 min 0 min 875 W/m 16,1 km/h (3 Bft) 95,74 %
31.05.2023 15:22 26,7 C 31,1 C 21,7 C 46 % 1022,6 hPa 0,0 l/m 2 min 0 min 870 W/m 19,3 km/h (3 Bft) 95,65 %
31.05.2023 15:24 26,7 C 31,1 C 21,1 C 45 % 1022,6 hPa 0,0 l/m 2 min 0 min 866 W/m 16,1 km/h (3 Bft) 95,74 %
31.05.2023 15:26 26,6 C 31,1 C 21,1 C 45 % 1022,5 hPa 0,0 l/m 2 min 0 min 867 W/m 12,9 km/h (3 Bft) 95,74 %
31.05.2023 15:28 26,5 C 31,1 C 21,7 C 44 % 1022,5 hPa 0,0 l/m 2 min 0 min 862 W/m 12,9 km/h (3 Bft) 93,62 %
31.05.2023 15:30 26,5 C 31,7 C 21,7 C 46 % 1022,6 hPa 0,0 l/m 2 min 0 min 866 W/m 19,3 km/h (3 Bft) 97,87 %
31.05.2023 15:32 26,5 C 31,1 C 21,7 C 46 % 1022,5 hPa 0,0 l/m 2 min 0 min 861 W/m 16,1 km/h (3 Bft) 97,14 %
31.05.2023 15:34 26,5 C 31,7 C 21,7 C 46 % 1022,5 hPa 0,0 l/m 2 min 0 min 857 W/m 22,5 km/h (4 Bft) 96,61 %
31.05.2023 15:36 26,6 C 32,2 C 21,7 C 46 % 1022,5 hPa 0,0 l/m 2 min 0 min 852 W/m 12,9 km/h (3 Bft) 97,83 %
31.05.2023 15:38 26,6 C 32,2 C 21,7 C 45 % 1022,5 hPa 0,0 l/m 2 min 0 min 848 W/m 16,1 km/h (3 Bft) 100,00 %
31.05.2023 15:40 26,6 C 32,2 C 21,7 C 46 % 1022,4 hPa 0,0 l/m 2 min 0 min 847 W/m 12,9 km/h (3 Bft) 100,00 %
31.05.2023 15:42 26,7 C 31,7 C 21,7 C 46 % 1022,4 hPa 0,0 l/m 2 min 0 min 843 W/m 9,7 km/h (2 Bft) 100,00 %
31.05.2023 15:44 26,7 C 31,1 C 21,7 C 46 % 1022,4 hPa 0,0 l/m 2 min 0 min 842 W/m 16,1 km/h (3 Bft) 100,00 %
31.05.2023 15:46 26,7 C 31,1 C 21,7 C 45 % 1022,3 hPa 0,0 l/m 2 min 0 min 836 W/m 19,3 km/h (3 Bft) 100,00 %
31.05.2023 15:48 26,6 C 31,1 C 21,7 C 45 % 1022,3 hPa 0,0 l/m 2 min 0 min 833 W/m 22,5 km/h (4 Bft) 100,00 %
31.05.2023 15:50 26,7 C 31,7 C 21,7 C 46 % 1022,3 hPa 0,0 l/m 2 min 0 min 823 W/m 12,9 km/h (3 Bft) 100,00 %
31.05.2023 15:52 26,6 C 31,1 C 21,7 C 46 % 1022,3 hPa 0,0 l/m 2 min 0 min 826 W/m 19,3 km/h (3 Bft) 97,83 %
31.05.2023 15:54 26,6 C 30,6 C 21,7 C 45 % 1022,4 hPa 0,0 l/m 2 min 0 min 834 W/m 19,3 km/h (3 Bft) 100,00 %
31.05.2023 15:56 26,6 C 31,7 C 21,7 C 46 % 1022,3 hPa 0,0 l/m 2 min 0 min 836 W/m 12,9 km/h (3 Bft) 97,87 %
31.05.2023 15:58 26,6 C 31,7 C 21,7 C 46 % 1022,2 hPa 0,0 l/m 2 min 0 min 834 W/m 25,7 km/h (4 Bft) 100,00 %
31.05.2023 16:00 26,6 C 31,1 C 21,7 C 44 % 1022,2 hPa 0,0 l/m 2 min 0 min 833 W/m 16,1 km/h (3 Bft) 100,00 %
31.05.2023 16:02 26,6 C 31,1 C 21,7 C 45 % 1022,3 hPa 0,0 l/m 2 min 0 min 792 W/m 16,1 km/h (3 Bft) 100,00 %
31.05.2023 16:04 26,6 C 31,7 C 21,7 C 46 % 1022,2 hPa 0,0 l/m 2 min 0 min 785 W/m 9,7 km/h (2 Bft) 97,87 %
31.05.2023 16:06 26,7 C 31,7 C 22,2 C 46 % 1022,2 hPa 0,0 l/m 2 min 0 min 824 W/m 16,1 km/h (3 Bft) 100,00 %
31.05.2023 16:08 26,6 C 30,6 C 21,7 C 45 % 1022,2 hPa 0,0 l/m 2 min 0 min 823 W/m 12,9 km/h (3 Bft) 100,00 %
31.05.2023 16:10 26,6 C 30,6 C 21,7 C 45 % 1022,2 hPa 0,0 l/m 2 min 0 min 785 W/m 16,1 km/h (3 Bft) 95,74 %
31.05.2023 16:12 26,6 C 31,1 C 21,7 C 45 % 1022,1 hPa 0,0 l/m 2 min 0 min 772 W/m 12,9 km/h (3 Bft) 97,87 %
31.05.2023 16:14 26,6 C 30,6 C 21,7 C 45 % 1022,1 hPa 0,0 l/m 2 min 0 min 534 W/m 12,9 km/h (3 Bft) 97,87 %
31.05.2023 16:16 26,6 C 30,6 C 21,7 C 46 % 1022,1 hPa 0,0 l/m 2 min 0 min 570 W/m 16,1 km/h (3 Bft) 97,87 %
31.05.2023 16:18 26,6 C 30,6 C 21,7 C 45 % 1022,1 hPa 0,0 l/m 2 min 0 min 723 W/m 16,1 km/h (3 Bft) 100,00 %
31.05.2023 16:20 26,4 C 30,0 C 21,7 C 45 % 1022,0 hPa 0,0 l/m 2 min 0 min 631 W/m 19,3 km/h (3 Bft) 100,00 %
31.05.2023 16:22 26,4 C 29,4 C 21,7 C 45 % 1022,0 hPa 0,0 l/m 2 min 0 min 608 W/m 12,9 km/h (3 Bft) 100,00 %
31.05.2023 16:24 26,3 C 30,0 C 21,7 C 46 % 1022,0 hPa 0,0 l/m 2 min 0 min 687 W/m 16,1 km/h (3 Bft) 97,87 %
31.05.2023 16:26 26,3 C 30,6 C 21,7 C 46 % 1022,0 hPa 0,0 l/m 2 min 0 min 792 W/m 16,1 km/h (3 Bft) 100,00 %
31.05.2023 16:28 26,3 C 31,1 C 22,2 C 46 % 1022,0 hPa 0,0 l/m 2 min 0 min 772 W/m 16,1 km/h (3 Bft) 95,74 %
31.05.2023 16:30 26,4 C 31,7 C 22,2 C 46 % 1022,0 hPa 0,0 l/m 2 min 0 min 781 W/m 19,3 km/h (3 Bft) 97,87 %
31.05.2023 16:32 26,6 C 32,2 C 22,2 C 46 % 1022,0 hPa 0,0 l/m 2 min 0 min 774 W/m 12,9 km/h (3 Bft) 97,87 %
31.05.2023 16:34 26,6 C 32,2 C 22,2 C 46 % 1021,9 hPa 0,0 l/m 2 min 0 min 774 W/m 22,5 km/h (4 Bft) 97,83 %
31.05.2023 16:36 26,7 C 32,2 C 22,2 C 46 % 1021,9 hPa 0,0 l/m 2 min 0 min 780 W/m 12,9 km/h (3 Bft) 97,87 %
31.05.2023 16:38 26,7 C 32,2 C 22,2 C 46 % 1022,0 hPa 0,0 l/m 2 min 0 min 776 W/m 12,9 km/h (3 Bft) 97,87 %
31.05.2023 16:40 26,7 C 32,8 C 22,8 C 46 % 1021,9 hPa 0,0 l/m 2 min 0 min 764 W/m 12,9 km/h (3 Bft) 97,87 %
31.05.2023 16:42 26,8 C 32,2 C 22,8 C 46 % 1021,9 hPa 0,0 l/m 2 min 0 min 683 W/m 12,9 km/h (3 Bft) 97,87 %
31.05.2023 16:44 26,8 C 32,2 C 22,8 C 45 % 1021,9 hPa 0,0 l/m 2 min 0 min 675 W/m 19,3 km/h (3 Bft) 97,87 %
31.05.2023 16:46 26,8 C 31,1 C 22,2 C 45 % 1021,9 hPa 0,0 l/m 2 min 0 min 696 W/m 16,1 km/h (3 Bft) 95,65 %
31.05.2023 16:48 26,7 C 30,6 C 22,2 C 45 % 1021,9 hPa 0,0 l/m 2 min 0 min 512 W/m 16,1 km/h (3 Bft) 97,87 %
31.05.2023 16:50 26,7 C 30,6 C 22,2 C 46 % 1021,8 hPa 0,0 l/m 2 min 0 min 505 W/m 16,1 km/h (3 Bft) 97,87 %
31.05.2023 16:52 26,7 C 31,1 C 22,8 C 47 % 1021,9 hPa 0,0 l/m 2 min 0 min 556 W/m 9,7 km/h (2 Bft) 97,87 %
31.05.2023 16:54 26,7 C 31,1 C 22,8 C 46 % 1021,8 hPa 0,0 l/m 2 min 0 min 682 W/m 16,1 km/h (3 Bft) 97,87 %
31.05.2023 16:56 26,7 C 31,7 C 22,8 C 45 % 1021,8 hPa 0,0 l/m 2 min 0 min 690 W/m 12,9 km/h (3 Bft) 95,74 %
31.05.2023 16:58 26,7 C 31,7 C 22,8 C 46 % 1021,8 hPa 0,0 l/m 2 min 0 min 702 W/m 19,3 km/h (3 Bft) 95,74 %
31.05.2023 17:00 26,7 C 31,7 C 22,8 C 45 % 1021,9 hPa 0,0 l/m 2 min 0 min 719 W/m 19,3 km/h (3 Bft) 100,00 %
31.05.2023 17:02 26,7 C 31,7 C 22,8 C 45 % 1021,8 hPa 0,0 l/m 2 min 0 min 705 W/m 12,9 km/h (3 Bft) 100,00 %
31.05.2023 17:04 26,7 C 32,2 C 23,3 C 46 % 1021,8 hPa 0,0 l/m 2 min 0 min 710 W/m 9,7 km/h (2 Bft) 97,87 %
31.05.2023 17:06 26,8 C 32,8 C 23,3 C 46 % 1021,8 hPa 0,0 l/m 2 min 0 min 692 W/m 12,9 km/h (3 Bft) 100,00 %
31.05.2023 17:08 26,8 C 32,2 C 23,3 C 46 % 1021,8 hPa 0,0 l/m 2 min 0 min 670 W/m 16,1 km/h (3 Bft) 97,87 %
31.05.2023 17:10 26,9 C 32,2 C 23,3 C 46 % 1021,7 hPa 0,0 l/m 2 min 0 min 680 W/m 12,9 km/h (3 Bft) 97,87 %
31.05.2023 17:12 27,0 C 32,8 C 23,3 C 46 % 1021,7 hPa 0,0 l/m 2 min 0 min 664 W/m 16,1 km/h (3 Bft) 97,83 %
31.05.2023 17:14 27,1 C 32,8 C 23,9 C 45 % 1021,7 hPa 0,0 l/m 2 min 0 min 663 W/m 19,3 km/h (3 Bft) 100,00 %
31.05.2023 17:16 27,0 C 31,7 C 23,3 C 46 % 1021,8 hPa 0,0 l/m 2 min 0 min 624 W/m 19,3 km/h (3 Bft) 97,87 %
31.05.2023 17:18 27,1 C 32,2 C 23,9 C 46 % 1021,7 hPa 0,0 l/m 2 min 0 min 634 W/m 12,9 km/h (3 Bft) 100,00 %
31.05.2023 17:20 27,1 C 31,1 C 23,3 C 46 % 1021,7 hPa 0,0 l/m 2 min 0 min 654 W/m 19,3 km/h (3 Bft) 100,00 %
31.05.2023 17:22 26,9 C 30,6 C 22,8 C 46 % 1021,7 hPa 0,0 l/m 2 min 0 min 628 W/m 19,3 km/h (3 Bft) 95,74 %
31.05.2023 17:24 26,9 C 30,0 C 22,8 C 45 % 1021,7 hPa 0,0 l/m 2 min 0 min 594 W/m 12,9 km/h (3 Bft) 95,74 %
31.05.2023 17:26 26,9 C 30,0 C 22,8 C 45 % 1021,7 hPa 0,0 l/m 2 min 0 min 592 W/m 16,1 km/h (3 Bft) 97,83 %
31.05.2023 17:28 26,8 C 30,0 C 22,8 C 45 % 1021,7 hPa 0,0 l/m 2 min 0 min 641 W/m 16,1 km/h (3 Bft) 97,87 %
31.05.2023 17:30 26,9 C 31,1 C 23,3 C 46 % 1021,7 hPa 0,0 l/m 2 min 0 min 664 W/m 16,1 km/h (3 Bft) 97,87 %
31.05.2023 17:32 26,9 C 31,7 C 23,9 C 45 % 1021,7 hPa 0,0 l/m 2 min 0 min 647 W/m 16,1 km/h (3 Bft) 95,74 %
31.05.2023 17:34 27,0 C 31,7 C 23,9 C 47 % 1021,7 hPa 0,0 l/m 2 min 0 min 603 W/m 12,9 km/h (3 Bft) 95,74 %
31.05.2023 17:36 27,1 C 32,2 C 23,9 C 47 % 1021,7 hPa 0,0 l/m 2 min 0 min 597 W/m 9,7 km/h (2 Bft) 97,87 %
31.05.2023 17:38 27,1 C 32,8 C 23,9 C 47 % 1021,7 hPa 0,0 l/m 2 min 0 min 606 W/m 12,9 km/h (3 Bft) 97,83 %
31.05.2023 17:40 27,1 C 32,2 C 23,9 C 45 % 1021,7 hPa 0,0 l/m 2 min 0 min 573 W/m 16,1 km/h (3 Bft) 97,87 %
31.05.2023 17:42 27,1 C 31,7 C 23,9 C 45 % 1021,7 hPa 0,0 l/m 2 min 0 min 541 W/m 12,9 km/h (3 Bft) 93,62 %
31.05.2023 17:44 27,1 C 32,2 C 23,9 C 46 % 1021,6 hPa 0,0 l/m 2 min 0 min 544 W/m 9,7 km/h (2 Bft) 97,87 %
31.05.2023 17:46 27,1 C 31,7 C 23,9 C 46 % 1021,6 hPa 0,0 l/m 2 min 0 min 548 W/m 16,1 km/h (3 Bft) 97,87 %
31.05.2023 17:48 27,0 C 31,1 C 23,9 C 47 % 1021,5 hPa 0,0 l/m 2 min 0 min 500 W/m 16,1 km/h (3 Bft) 95,74 %
31.05.2023 17:50 27,0 C 31,1 C 23,3 C 46 % 1021,6 hPa 0,0 l/m 2 min 0 min 520 W/m 12,9 km/h (3 Bft) 95,65 %
31.05.2023 17:52 26,9 C 31,7 C 23,3 C 46 % 1021,5 hPa 0,0 l/m 2 min 0 min 510 W/m 9,7 km/h (2 Bft) 93,62 %
31.05.2023 17:54 26,9 C 31,1 C 23,3 C 47 % 1021,5 hPa 0,0 l/m 2 min 0 min 503 W/m 16,1 km/h (3 Bft) 93,62 %
31.05.2023 17:56 26,9 C 32,2 C 23,3 C 47 % 1021,4 hPa 0,0 l/m 2 min 0 min 545 W/m 16,1 km/h (3 Bft) 93,62 %
31.05.2023 17:58 26,9 C 31,7 C 23,3 C 46 % 1021,4 hPa 0,0 l/m 2 min 0 min 536 W/m 16,1 km/h (3 Bft) 93,62 %
31.05.2023 18:00 26,9 C 32,2 C 23,3 C 46 % 1021,4 hPa 0,0 l/m 2 min 0 min 525 W/m 9,7 km/h (2 Bft) 95,74 %
31.05.2023 18:02 26,9 C 31,1 C 23,3 C 45 % 1021,5 hPa 0,0 l/m 2 min 0 min 502 W/m 16,1 km/h (3 Bft) 93,88 %
31.05.2023 18:04 26,9 C 31,1 C 23,3 C 46 % 1021,4 hPa 0,0 l/m 2 min 0 min 516 W/m 19,3 km/h (3 Bft) 95,74 %
31.05.2023 18:08 26,9 C 32,2 C 23,3 C 46 % 1021,4 hPa 0,0 l/m 4 min 0 min 493 W/m 12,9 km/h (3 Bft) 97,89 %
31.05.2023 18:10 27,0 C 31,7 C 23,3 C 47 % 1021,4 hPa 0,0 l/m 2 min 0 min 466 W/m 12,9 km/h (3 Bft) 95,74 %
31.05.2023 18:12 27,0 C 32,2 C 23,3 C 47 % 1021,4 hPa 0,0 l/m 2 min 0 min 497 W/m 16,1 km/h (3 Bft) 97,87 %
31.05.2023 18:14 27,0 C 31,7 C 23,3 C 46 % 1021,3 hPa 0,0 l/m 2 min 0 min 497 W/m 19,3 km/h (3 Bft) 95,65 %
31.05.2023 18:16 26,9 C 32,2 C 23,9 C 47 % 1021,4 hPa 0,0 l/m 2 min 0 min 492 W/m 12,9 km/h (3 Bft) 97,87 %
31.05.2023 18:18 26,9 C 31,1 C 23,9 C 47 % 1021,3 hPa 0,0 l/m 2 min 0 min 477 W/m 19,3 km/h (3 Bft) 94,44 %
31.05.2023 18:20 26,9 C 31,7 C 23,3 C 47 % 1021,3 hPa 0,0 l/m 2 min 0 min 415 W/m 12,9 km/h (3 Bft) 98,33 %
31.05.2023 18:22 26,9 C 31,1 C 23,3 C 46 % 1021,2 hPa 0,0 l/m 2 min 0 min 356 W/m 19,3 km/h (3 Bft) 93,48 %
31.05.2023 18:24 26,8 C 31,1 C 23,3 C 47 % 1021,3 hPa 0,0 l/m 2 min 0 min 424 W/m 12,9 km/h (3 Bft) 95,74 %
31.05.2023 18:26 26,8 C 31,1 C 23,3 C 47 % 1021,2 hPa 0,0 l/m 2 min 0 min 397 W/m 16,1 km/h (3 Bft) 97,87 %
31.05.2023 18:28 26,7 C 31,7 C 23,3 C 47 % 1021,2 hPa 0,0 l/m 2 min 0 min 390 W/m 9,7 km/h (2 Bft) 95,74 %
31.05.2023 18:30 26,6 C 30,0 C 22,8 C 46 % 1021,2 hPa 0,0 l/m 2 min 0 min 387 W/m 16,1 km/h (3 Bft) 95,74 %
31.05.2023 18:32 26,6 C 30,0 C 22,8 C 47 % 1021,2 hPa 0,0 l/m 2 min 0 min 408 W/m 12,9 km/h (3 Bft) 95,74 %
31.05.2023 18:34 26,4 C 30,0 C 22,8 C 47 % 1021,2 hPa 0,0 l/m 2 min 0 min 399 W/m 19,3 km/h (3 Bft) 95,74 %
31.05.2023 18:36 26,4 C 30,0 C 22,8 C 46 % 1021,2 hPa 0,0 l/m 2 min 0 min 418 W/m 12,9 km/h (3 Bft) 93,48 %
31.05.2023 18:38 26,3 C 30,6 C 22,8 C 47 % 1021,1 hPa 0,0 l/m 2 min 0 min 413 W/m 9,7 km/h (2 Bft) 93,62 %
31.05.2023 18:40 26,4 C 31,1 C 22,8 C 47 % 1021,1 hPa 0,0 l/m 2 min 0 min 409 W/m 12,9 km/h (3 Bft) 95,74 %
31.05.2023 18:42 26,4 C 31,1 C 23,3 C 47 % 1021,2 hPa 0,0 l/m 2 min 0 min 393 W/m 9,7 km/h (2 Bft) 95,74 %
31.05.2023 18:44 26,4 C 31,1 C 23,3 C 47 % 1021,1 hPa 0,0 l/m 2 min 0 min 391 W/m 19,3 km/h (3 Bft) 95,74 %
31.05.2023 18:46 26,4 C 31,1 C 23,3 C 47 % 1021,2 hPa 0,0 l/m 2 min 0 min 392 W/m 12,9 km/h (3 Bft) 95,74 %
31.05.2023 18:48 26,4 C 30,6 C 22,8 C 46 % 1021,1 hPa 0,0 l/m 2 min 0 min 372 W/m 25,7 km/h (4 Bft) 93,48 %
31.05.2023 18:50 26,3 C 30,6 C 22,8 C 46 % 1021,2 hPa 0,0 l/m 2 min 0 min 376 W/m 16,1 km/h (3 Bft) 95,74 %
31.05.2023 18:52 26,3 C 30,6 C 22,8 C 46 % 1021,1 hPa 0,0 l/m 2 min 0 min 361 W/m 12,9 km/h (3 Bft) 97,87 %
31.05.2023 18:54 26,1 C 30,6 C 22,8 C 46 % 1021,1 hPa 0,0 l/m 2 min 0 min 341 W/m 19,3 km/h (3 Bft) 100,00 %
31.05.2023 18:56 26,0 C 30,0 C 22,2 C 46 % 1021,2 hPa 0,0 l/m 2 min 0 min 294 W/m 16,1 km/h (3 Bft) 100,00 %
31.05.2023 18:58 25,9 C 29,4 C 22,2 C 47 % 1021,2 hPa 0,0 l/m 2 min 0 min 296 W/m 12,9 km/h (3 Bft) 100,00 %
31.05.2023 19:00 25,8 C 28,9 C 22,2 C 47 % 1021,2 hPa 0,0 l/m 2 min 0 min 321 W/m 12,9 km/h (3 Bft) 100,00 %
31.05.2023 19:02 25,7 C 28,9 C 21,7 C 48 % 1021,1 hPa 0,0 l/m 2 min 0 min 324 W/m 12,9 km/h (3 Bft) 97,83 %
31.05.2023 19:04 25,7 C 29,4 C 21,7 C 48 % 1021,1 hPa 0,0 l/m 2 min 0 min 313 W/m 16,1 km/h (3 Bft) 100,00 %
31.05.2023 19:06 25,6 C 28,9 C 21,7 C 48 % 1021,1 hPa 0,0 l/m 2 min 0 min 313 W/m 16,1 km/h (3 Bft) 100,00 %
31.05.2023 19:08 25,6 C 29,4 C 21,7 C 48 % 1021,1 hPa 0,0 l/m 2 min 0 min 313 W/m 9,7 km/h (2 Bft) 95,74 %
31.05.2023 19:10 25,5 C 29,4 C 21,1 C 50 % 1021,1 hPa 0,0 l/m 2 min 0 min 314 W/m 9,7 km/h (2 Bft) 97,87 %
31.05.2023 19:12 25,5 C 30,0 C 21,1 C 49 % 1021,1 hPa 0,0 l/m 2 min 0 min 313 W/m 16,1 km/h (3 Bft) 100,00 %
31.05.2023 19:14 25,4 C 30,0 C 20,6 C 50 % 1021,1 hPa 0,0 l/m 2 min 0 min 301 W/m 12,9 km/h (3 Bft) 100,00 %
31.05.2023 19:16 25,4 C 29,4 C 20,6 C 50 % 1021,1 hPa 0,0 l/m 2 min 0 min 284 W/m 9,7 km/h (2 Bft) 97,87 %
31.05.2023 19:18 25,3 C 28,9 C 20,6 C 49 % 1021,1 hPa 0,0 l/m 2 min 0 min 273 W/m 19,3 km/h (3 Bft) 100,00 %
31.05.2023 19:20 25,2 C 27,2 C 20,6 C 48 % 1021,1 hPa 0,0 l/m 2 min 0 min 243 W/m 19,3 km/h (3 Bft) 100,00 %
31.05.2023 19:22 25,1 C 26,7 C 20,0 C 48 % 1021,0 hPa 0,0 l/m 2 min 0 min 221 W/m 16,1 km/h (3 Bft) 100,00 %
31.05.2023 19:24 24,8 C 26,1 C 20,0 C 48 % 1021,0 hPa 0,0 l/m 2 min 0 min 228 W/m 22,5 km/h (4 Bft) 100,00 %
31.05.2023 19:26 24,8 C 26,1 C 20,0 C 49 % 1021,1 hPa 0,0 l/m 2 min 0 min 238 W/m 19,3 km/h (3 Bft) 100,00 %
31.05.2023 19:28 24,7 C 25,6 C 20,0 C 50 % 1021,0 hPa 0,0 l/m 2 min 0 min 257 W/m 9,7 km/h (2 Bft) 100,00 %
31.05.2023 19:30 24,7 C 25,0 C 20,0 C 51 % 1021,0 hPa 0,0 l/m 2 min 0 min 251 W/m 16,1 km/h (3 Bft) 100,00 %
31.05.2023 19:32 24,6 C 24,4 C 20,0 C 50 % 1021,0 hPa 0,0 l/m 2 min 0 min 231 W/m 19,3 km/h (3 Bft) 100,00 %
31.05.2023 19:34 24,6 C 24,4 C 19,4 C 51 % 1021,0 hPa 0,0 l/m 2 min 0 min 194 W/m 9,7 km/h (2 Bft) 100,00 %
31.05.2023 19:36 24,4 C 23,9 C 19,4 C 50 % 1021,0 hPa 0,0 l/m 2 min 0 min 191 W/m 16,1 km/h (3 Bft) 100,00 %
31.05.2023 19:38 24,3 C 23,9 C 19,4 C 51 % 1021,0 hPa 0,0 l/m 2 min 0 min 190 W/m 12,9 km/h (3 Bft) 100,00 %
31.05.2023 19:40 24,2 C 23,9 C 18,9 C 53 % 1021,0 hPa 0,0 l/m 2 min 0 min 190 W/m 9,7 km/h (2 Bft) 100,00 %
31.05.2023 19:42 24,1 C 23,9 C 18,9 C 52 % 1021,1 hPa 0,0 l/m 2 min 0 min 188 W/m 19,3 km/h (3 Bft) 100,00 %
31.05.2023 19:44 24,1 C 23,3 C 18,9 C 53 % 1021,0 hPa 0,0 l/m 2 min 0 min 187 W/m 12,9 km/h (3 Bft) 97,83 %
31.05.2023 19:46 24,0 C 23,9 C 18,9 C 54 % 1021,0 hPa 0,0 l/m 2 min 0 min 156 W/m 12,9 km/h (3 Bft) 100,00 %
31.05.2023 19:48 23,9 C 23,3 C 18,9 C 53 % 1021,0 hPa 0,0 l/m 0 min 0 min 105 W/m 16,1 km/h (3 Bft) 100,00 %
31.05.2023 19:50 23,8 C 23,3 C 18,9 C 52 % 1021,0 hPa 0,0 l/m 0 min 0 min 82 W/m 19,3 km/h (3 Bft) 97,87 %
31.05.2023 19:52 23,7 C 23,3 C 18,9 C 52 % 1021,0 hPa 0,0 l/m 0 min 0 min 77 W/m 16,1 km/h (3 Bft) 95,74 %
31.05.2023 19:54 23,7 C 22,8 C 18,9 C 53 % 1021,0 hPa 0,0 l/m 0 min 0 min 82 W/m 16,1 km/h (3 Bft) 97,87 %
31.05.2023 19:56 23,6 C 22,8 C 18,9 C 53 % 1021,0 hPa 0,0 l/m 0 min 0 min 84 W/m 9,7 km/h (2 Bft) 97,87 %
31.05.2023 19:58 23,4 C 22,8 C 18,9 C 52 % 1021,0 hPa 0,0 l/m 0 min 0 min 84 W/m 12,9 km/h (3 Bft) 95,65 %
31.05.2023 20:00 23,4 C 22,8 C 18,9 C 53 % 1021,0 hPa 0,0 l/m 0 min 0 min 83 W/m 12,9 km/h (3 Bft) 95,74 %
31.05.2023 20:02 23,3 C 22,8 C 18,9 C 53 % 1021,0 hPa 0,0 l/m 0 min 0 min 80 W/m 9,7 km/h (2 Bft) 97,14 %
31.05.2023 20:04 23,3 C 22,8 C 18,3 C 54 % 1021,0 hPa 0,0 l/m 0 min 0 min 77 W/m 12,9 km/h (3 Bft) 97,87 %
31.05.2023 20:06 23,2 C 22,8 C 18,3 C 53 % 1021,0 hPa 0,0 l/m 0 min 0 min 76 W/m 19,3 km/h (3 Bft) 98,31 %
31.05.2023 20:08 23,2 C 22,8 C 18,3 C 54 % 1021,0 hPa 0,0 l/m 0 min 0 min 75 W/m 12,9 km/h (3 Bft) 94,29 %
31.05.2023 20:10 23,2 C 22,8 C 18,3 C 54 % 1020,9 hPa 0,0 l/m 0 min 0 min 75 W/m 6,4 km/h (2 Bft) 95,74 %
31.05.2023 20:12 23,1 C 22,8 C 18,3 C 54 % 1021,0 hPa 0,0 l/m 0 min 0 min 74 W/m 9,7 km/h (2 Bft) 93,62 %
31.05.2023 20:14 23,1 C 22,8 C 18,3 C 55 % 1021,0 hPa 0,0 l/m 0 min 0 min 71 W/m 12,9 km/h (3 Bft) 97,83 %
31.05.2023 20:16 23,1 C 22,8 C 18,3 C 55 % 1020,9 hPa 0,0 l/m 0 min 0 min 69 W/m 3,2 km/h (1 Bft) 97,87 %
31.05.2023 20:18 23,1 C 22,8 C 18,3 C 55 % 1020,9 hPa 0,0 l/m 0 min 0 min 66 W/m 3,2 km/h (1 Bft) 97,87 %
31.05.2023 20:20 23,1 C 22,8 C 18,3 C 56 % 1020,9 hPa 0,0 l/m 0 min 0 min 61 W/m 9,7 km/h (2 Bft) 95,74 %
31.05.2023 20:22 23,1 C 22,8 C 18,3 C 57 % 1020,9 hPa 0,0 l/m 0 min 0 min 57 W/m 9,7 km/h (2 Bft) 91,49 %
31.05.2023 20:24 23,0 C 22,8 C 18,3 C 56 % 1020,9 hPa 0,0 l/m 0 min 0 min 54 W/m 6,4 km/h (2 Bft) 93,62 %
31.05.2023 20:26 22,9 C 22,2 C 18,3 C 56 % 1020,9 hPa 0,0 l/m 0 min 0 min 52 W/m 6,4 km/h (2 Bft) 95,65 %
31.05.2023 20:28 22,9 C 22,2 C 18,3 C 55 % 1020,9 hPa 0,0 l/m 0 min 0 min 51 W/m 9,7 km/h (2 Bft) 95,74 %
31.05.2023 20:30 22,8 C 22,2 C 18,3 C 55 % 1020,9 hPa 0,0 l/m 0 min 0 min 50 W/m 9,7 km/h (2 Bft) 93,62 %
31.05.2023 20:32 22,7 C 22,2 C 17,8 C 55 % 1021,0 hPa 0,0 l/m 0 min 0 min 47 W/m 9,7 km/h (2 Bft) 95,74 %
31.05.2023 20:34 22,7 C 22,2 C 17,8 C 55 % 1021,0 hPa 0,0 l/m 0 min 0 min 46 W/m 12,9 km/h (3 Bft) 97,87 %
31.05.2023 20:36 22,6 C 22,2 C 17,8 C 54 % 1021,0 hPa 0,0 l/m 0 min 0 min 44 W/m 9,7 km/h (2 Bft) 97,87 %
31.05.2023 20:38 22,6 C 22,2 C 17,8 C 54 % 1021,0 hPa 0,0 l/m 0 min 0 min 41 W/m 9,7 km/h (2 Bft) 95,65 %
31.05.2023 20:40 22,6 C 22,2 C 17,8 C 54 % 1021,0 hPa 0,0 l/m 0 min 0 min 39 W/m 12,9 km/h (3 Bft) 97,87 %
31.05.2023 20:42 22,5 C 22,2 C 17,8 C 54 % 1021,0 hPa 0,0 l/m 0 min 0 min 36 W/m 9,7 km/h (2 Bft) 97,87 %
31.05.2023 20:44 22,4 C 21,7 C 17,8 C 55 % 1021,0 hPa 0,0 l/m 0 min 0 min 35 W/m 6,4 km/h (2 Bft) 95,74 %
31.05.2023 20:46 22,4 C 21,7 C 17,8 C 55 % 1021,0 hPa 0,0 l/m 0 min 0 min 33 W/m 6,4 km/h (2 Bft) 95,74 %
31.05.2023 20:48 22,4 C 21,7 C 17,8 C 56 % 1021,0 hPa 0,0 l/m 0 min 0 min 31 W/m 6,4 km/h (2 Bft) 97,87 %
31.05.2023 20:50 22,3 C 21,7 C 17,8 C 56 % 1021,0 hPa 0,0 l/m 0 min 0 min 29 W/m 3,2 km/h (1 Bft) 97,83 %
31.05.2023 20:52 22,3 C 21,1 C 17,2 C 56 % 1021,0 hPa 0,0 l/m 0 min 0 min 26 W/m 6,4 km/h (2 Bft) 97,87 %
31.05.2023 20:54 22,2 C 21,1 C 17,2 C 56 % 1021,0 hPa 0,0 l/m 0 min 0 min 26 W/m 6,4 km/h (2 Bft) 100,00 %
31.05.2023 20:56 22,2 C 21,1 C 17,2 C 58 % 1021,0 hPa 0,0 l/m 0 min 0 min 25 W/m 12,9 km/h (3 Bft) 95,74 %
31.05.2023 20:58 22,1 C 21,1 C 17,2 C 57 % 1021,0 hPa 0,0 l/m 0 min 0 min 25 W/m 3,2 km/h (1 Bft) 100,00 %
31.05.2023 21:00 22,1 C 21,1 C 17,2 C 59 % 1021,0 hPa 0,0 l/m 0 min 0 min 22 W/m 6,4 km/h (2 Bft) 95,74 %
31.05.2023 21:02 22,1 C 21,1 C 17,2 C 58 % 1021,0 hPa 0,0 l/m 0 min 0 min 21 W/m 9,7 km/h (2 Bft) 100,00 %
31.05.2023 21:04 22,0 C 21,1 C 17,2 C 57 % 1021,0 hPa 0,0 l/m 0 min 0 min 21 W/m 6,4 km/h (2 Bft) 100,00 %
31.05.2023 21:06 21,9 C 20,6 C 17,2 C 58 % 1021,0 hPa 0,0 l/m 0 min 0 min 19 W/m 6,4 km/h (2 Bft) 98,28 %
31.05.2023 21:08 21,9 C 20,6 C 16,7 C 58 % 1020,9 hPa 0,0 l/m 0 min 0 min 18 W/m 3,2 km/h (1 Bft) 100,00 %
31.05.2023 21:10 21,8 C 20,6 C 16,7 C 59 % 1021,0 hPa 0,0 l/m 0 min 0 min 16 W/m 6,4 km/h (2 Bft) 100,00 %
31.05.2023 21:12 21,7 C 20,6 C 16,7 C 59 % 1021,0 hPa 0,0 l/m 0 min 0 min 16 W/m 6,4 km/h (2 Bft) 97,87 %
31.05.2023 21:14 21,6 C 20,6 C 16,7 C 59 % 1020,9 hPa 0,0 l/m 0 min 0 min 16 W/m 9,7 km/h (2 Bft) 95,74 %
31.05.2023 21:16 21,6 C 20,0 C 16,7 C 59 % 1020,9 hPa 0,0 l/m 0 min 0 min 14 W/m 6,4 km/h (2 Bft) 97,87 %
31.05.2023 21:18 21,4 C 20,0 C 16,1 C 58 % 1020,9 hPa 0,0 l/m 0 min 0 min 13 W/m 3,2 km/h (1 Bft) 97,87 %
31.05.2023 21:20 21,3 C 20,0 C 16,1 C 59 % 1020,9 hPa 0,0 l/m 0 min 0 min 12 W/m 6,4 km/h (2 Bft) 97,87 %
31.05.2023 21:22 21,2 C 20,0 C 16,1 C 59 % 1021,0 hPa 0,0 l/m 0 min 0 min 12 W/m 6,4 km/h (2 Bft) 97,83 %
31.05.2023 21:24 21,1 C 20,0 C 16,1 C 59 % 1020,9 hPa 0,0 l/m 0 min 0 min 12 W/m 3,2 km/h (1 Bft) 97,87 %
31.05.2023 21:26 21,1 C 20,0 C 16,1 C 61 % 1020,9 hPa 0,0 l/m 0 min 0 min 11 W/m 3,2 km/h (1 Bft) 97,87 %
31.05.2023 21:28 21,0 C 19,4 C 16,1 C 60 % 1020,9 hPa 0,0 l/m 0 min 0 min 10 W/m 6,4 km/h (2 Bft) 97,87 %
31.05.2023 21:30 20,9 C 19,4 C 16,1 C 60 % 1020,9 hPa 0,0 l/m 0 min 0 min 9 W/m 6,4 km/h (2 Bft) 97,87 %
31.05.2023 21:32 20,9 C 19,4 C 16,1 C 60 % 1020,9 hPa 0,0 l/m 0 min 0 min 8 W/m 3,2 km/h (1 Bft) 97,87 %
31.05.2023 21:34 20,8 C 19,4 C 15,6 C 61 % 1021,0 hPa 0,0 l/m 0 min 0 min 7 W/m 3,2 km/h (1 Bft) 97,87 %
31.05.2023 21:36 20,7 C 19,4 C 15,6 C 61 % 1020,9 hPa 0,0 l/m 0 min 0 min 6 W/m 6,4 km/h (2 Bft) 97,83 %
31.05.2023 21:38 20,7 C 19,4 C 15,6 C 60 % 1021,0 hPa 0,0 l/m 0 min 0 min 5 W/m 3,2 km/h (1 Bft) 95,74 %
31.05.2023 21:40 20,6 C 19,4 C 15,6 C 62 % 1021,0 hPa 0,0 l/m 0 min 0 min 5 W/m 3,2 km/h (1 Bft) 95,74 %
31.05.2023 21:42 20,6 C 19,4 C 15,6 C 61 % 1021,0 hPa 0,0 l/m 0 min 0 min 3 W/m 3,2 km/h (1 Bft) 97,87 %
31.05.2023 21:44 20,6 C 18,9 C 15,6 C 62 % 1021,0 hPa 0,0 l/m 0 min 0 min 0 W/m 3,2 km/h (1 Bft) 95,74 %
31.05.2023 21:46 20,5 C 18,9 C 15,6 C 62 % 1021,1 hPa 0,0 l/m 0 min 0 min 0 W/m 3,2 km/h (1 Bft) 95,74 %
31.05.2023 21:48 20,4 C 18,9 C 15,6 C 62 % 1021,0 hPa 0,0 l/m 0 min 0 min 0 W/m 3,2 km/h (1 Bft) 97,83 %
31.05.2023 21:50 20,4 C 18,9 C 15,6 C 61 % 1021,0 hPa 0,0 l/m 0 min 0 min 0 W/m 3,2 km/h (1 Bft) 97,87 %
31.05.2023 21:52 20,4 C 18,9 C 15,6 C 62 % 1021,1 hPa 0,0 l/m 0 min 0 min 0 W/m 6,4 km/h (2 Bft) 97,87 %
31.05.2023 21:54 20,3 C 18,9 C 15,0 C 63 % 1021,0 hPa 0,0 l/m 0 min 0 min 0 W/m 3,2 km/h (1 Bft) 97,87 %
31.05.2023 21:56 20,3 C 18,9 C 15,0 C 63 % 1021,1 hPa 0,0 l/m 0 min 0 min 0 W/m 0,0 km/h (0 Bft) 97,87 %
31.05.2023 21:58 20,3 C 18,9 C 15,0 C 63 % 1021,1 hPa 0,0 l/m 0 min 0 min 0 W/m 3,2 km/h (1 Bft) 100,00 %
31.05.2023 22:00 20,2 C 18,9 C 15,0 C 64 % 1021,1 hPa 0,0 l/m 0 min 0 min 0 W/m 0,0 km/h (0 Bft) 100,00 %
31.05.2023 22:02 20,2 C 18,3 C 15,0 C 65 % 1021,1 hPa 0,0 l/m 0 min 0 min 0 W/m 0,0 km/h (0 Bft) 97,83 %
31.05.2023 22:04 20,2 C 18,3 C 15,0 C 65 % 1021,1 hPa 0,0 l/m 0 min 0 min 0 W/m 3,2 km/h (1 Bft) 97,92 %
31.05.2023 22:06 20,1 C 18,3 C 15,0 C 64 % 1021,2 hPa 0,0 l/m 0 min 0 min 0 W/m 3,2 km/h (1 Bft) 100,00 %
31.05.2023 22:08 20,1 C 18,3 C 15,0 C 64 % 1021,2 hPa 0,0 l/m 0 min 0 min 0 W/m 3,2 km/h (1 Bft) 100,00 %
31.05.2023 22:10 20,1 C 18,3 C 14,4 C 64 % 1021,2 hPa 0,0 l/m 0 min 0 min 0 W/m 3,2 km/h (1 Bft) 100,00 %
31.05.2023 22:12 20,0 C 18,3 C 14,4 C 65 % 1021,1 hPa 0,0 l/m 0 min 0 min 0 W/m 3,2 km/h (1 Bft) 95,74 %
31.05.2023 22:14 19,9 C 18,3 C 14,4 C 64 % 1021,2 hPa 0,0 l/m 0 min 0 min 0 W/m 3,2 km/h (1 Bft) 97,87 %
31.05.2023 22:16 19,9 C 18,3 C 14,4 C 65 % 1021,2 hPa 0,0 l/m 0 min 0 min 0 W/m 0,0 km/h (0 Bft) 97,87 %
31.05.2023 22:18 19,8 C 18,3 C 14,4 C 65 % 1021,2 hPa 0,0 l/m 0 min 0 min 0 W/m 3,2 km/h (1 Bft) 97,83 %
31.05.2023 22:20 19,8 C 18,3 C 14,4 C 65 % 1021,2 hPa 0,0 l/m 0 min 0 min 0 W/m 0,0 km/h (0 Bft) 97,87 %
31.05.2023 22:22 19,8 C 18,3 C 14,4 C 66 % 1021,2 hPa 0,0 l/m 0 min 0 min 0 W/m 3,2 km/h (1 Bft) 97,87 %
31.05.2023 22:24 19,7 C 18,3 C 14,4 C 66 % 1021,2 hPa 0,0 l/m 0 min 0 min 0 W/m 3,2 km/h (1 Bft) 97,87 %
31.05.2023 22:26 19,7 C 17,8 C 14,4 C 66 % 1021,2 hPa 0,0 l/m 0 min 0 min 0 W/m 3,2 km/h (1 Bft) 97,87 %
31.05.2023 22:28 19,6 C 17,8 C 14,4 C 66 % 1021,3 hPa 0,0 l/m 0 min 0 min 0 W/m 3,2 km/h (1 Bft) 97,87 %
31.05.2023 22:30 19,6 C 17,8 C 14,4 C 66 % 1021,3 hPa 0,0 l/m 0 min 0 min 0 W/m 0,0 km/h (0 Bft) 97,87 %
31.05.2023 22:32 19,6 C 17,8 C 14,4 C 67 % 1021,3 hPa 0,0 l/m 0 min 0 min 0 W/m 0,0 km/h (0 Bft) 97,83 %
31.05.2023 22:34 19,5 C 17,8 C 14,4 C 67 % 1021,3 hPa 0,0 l/m 0 min 0 min 0 W/m 0,0 km/h (0 Bft) 97,87 %
31.05.2023 22:36 19,4 C 17,8 C 14,4 C 67 % 1021,3 hPa 0,0 l/m 0 min 0 min 0 W/m 0,0 km/h (0 Bft) 97,87 %
31.05.2023 22:38 19,4 C 17,8 C 14,4 C 67 % 1021,4 hPa 0,0 l/m 0 min 0 min 0 W/m 0,0 km/h (0 Bft) 97,87 %
31.05.2023 22:40 19,4 C 17,8 C 14,4 C 67 % 1021,4 hPa 0,0 l/m 0 min 0 min 0 W/m 0,0 km/h (0 Bft) 97,87 %
31.05.2023 22:42 19,3 C 17,8 C 13,9 C 67 % 1021,4 hPa 0,0 l/m 0 min 0 min 0 W/m 0,0 km/h (0 Bft) 97,87 %
31.05.2023 22:44 19,3 C 17,8 C 13,9 C 68 % 1021,4 hPa 0,0 l/m 0 min 0 min 0 W/m 0,0 km/h (0 Bft) 97,83 %
31.05.2023 22:46 19,3 C 17,8 C 13,9 C 68 % 1021,4 hPa 0,0 l/m 0 min 0 min 0 W/m 0,0 km/h (0 Bft) 97,87 %
31.05.2023 22:48 19,3 C 17,2 C 13,9 C 69 % 1021,4 hPa 0,0 l/m 0 min 0 min 0 W/m 0,0 km/h (0 Bft) 93,62 %
31.05.2023 22:50 19,2 C 17,2 C 13,9 C 70 % 1021,4 hPa 0,0 l/m 0 min 0 min 0 W/m 0,0 km/h (0 Bft) 97,92 %
31.05.2023 22:52 19,2 C 17,2 C 13,9 C 70 % 1021,4 hPa 0,0 l/m 0 min 0 min 0 W/m 0,0 km/h (0 Bft) 97,87 %
31.05.2023 22:54 19,2 C 17,2 C 13,9 C 70 % 1021,4 hPa 0,0 l/m 0 min 0 min 0 W/m 0,0 km/h (0 Bft) 98,00 %
31.05.2023 22:56 19,1 C 17,2 C 13,3 C 70 % 1021,4 hPa 0,0 l/m 0 min 0 min 0 W/m 0,0 km/h (0 Bft) 97,87 %
31.05.2023 22:58 19,1 C 16,7 C 13,3 C 71 % 1021,4 hPa 0,0 l/m 0 min 0 min 0 W/m 0,0 km/h (0 Bft) 97,87 %
31.05.2023 23:00 19,0 C 16,7 C 13,3 C 71 % 1021,4 hPa 0,0 l/m 0 min 0 min 0 W/m 0,0 km/h (0 Bft) 97,87 %
31.05.2023 23:02 18,9 C 16,7 C 13,3 C 71 % 1021,4 hPa 0,0 l/m 0 min 0 min 0 W/m 0,0 km/h (0 Bft) 97,87 %
31.05.2023 23:04 18,9 C 16,7 C 13,3 C 71 % 1021,5 hPa 0,0 l/m 0 min 0 min 0 W/m 0,0 km/h (0 Bft) 95,65 %
31.05.2023 23:06 18,8 C 16,7 C 13,3 C 72 % 1021,4 hPa 0,0 l/m 0 min 0 min 0 W/m 0,0 km/h (0 Bft) 97,87 %
31.05.2023 23:08 18,8 C 16,7 C 13,3 C 72 % 1021,4 hPa 0,0 l/m 0 min 0 min 0 W/m 0,0 km/h (0 Bft) 97,87 %
31.05.2023 23:10 18,8 C 16,7 C 13,3 C 72 % 1021,4 hPa 0,0 l/m 0 min 0 min 0 W/m 0,0 km/h (0 Bft) 97,87 %
31.05.2023 23:12 18,7 C 16,7 C 13,3 C 72 % 1021,4 hPa 0,0 l/m 0 min 0 min 0 W/m 0,0 km/h (0 Bft) 95,74 %
31.05.2023 23:14 18,7 C 16,7 C 12,8 C 72 % 1021,4 hPa 0,0 l/m 0 min 0 min 0 W/m 0,0 km/h (0 Bft) 97,87 %
31.05.2023 23:16 18,6 C 16,7 C 12,8 C 73 % 1021,4 hPa 0,0 l/m 0 min 0 min 0 W/m 0,0 km/h (0 Bft) 97,83 %
31.05.2023 23:18 18,6 C 16,1 C 12,8 C 73 % 1021,4 hPa 0,0 l/m 0 min 0 min 0 W/m 0,0 km/h (0 Bft) 97,87 %
31.05.2023 23:20 18,5 C 16,1 C 12,8 C 73 % 1021,5 hPa 0,0 l/m 0 min 0 min 0 W/m 0,0 km/h (0 Bft) 95,74 %
31.05.2023 23:22 18,4 C 16,1 C 12,8 C 73 % 1021,5 hPa 0,0 l/m 0 min 0 min 0 W/m 0,0 km/h (0 Bft) 97,87 %
31.05.2023 23:24 18,4 C 16,1 C 12,8 C 74 % 1021,5 hPa 0,0 l/m 0 min 0 min 0 W/m 0,0 km/h (0 Bft) 95,74 %
31.05.2023 23:26 18,3 C 16,1 C 12,8 C 73 % 1021,5 hPa 0,0 l/m 0 min 0 min 0 W/m 0,0 km/h (0 Bft) 95,74 %
31.05.2023 23:28 18,3 C 16,1 C 12,8 C 74 % 1021,5 hPa 0,0 l/m 0 min 0 min 0 W/m 0,0 km/h (0 Bft) 97,87 %
31.05.2023 23:30 18,2 C 16,1 C 12,8 C 74 % 1021,5 hPa 0,0 l/m 0 min 0 min 0 W/m 0,0 km/h (0 Bft) 97,83 %
31.05.2023 23:32 18,2 C 16,1 C 12,8 C 74 % 1021,4 hPa 0,0 l/m 0 min 0 min 0 W/m 3,2 km/h (1 Bft) 95,74 %
31.05.2023 23:34 18,1 C 16,1 C 12,8 C 74 % 1021,5 hPa 0,0 l/m 0 min 0 min 0 W/m 3,2 km/h (1 Bft) 97,87 %
31.05.2023 23:36 18,1 C 16,1 C 12,8 C 74 % 1021,5 hPa 0,0 l/m 0 min 0 min 0 W/m 3,2 km/h (1 Bft) 93,62 %
31.05.2023 23:38 18,0 C 16,1 C 12,8 C 74 % 1021,5 hPa 0,0 l/m 0 min 0 min 0 W/m 0,0 km/h (0 Bft) 93,62 %
31.05.2023 23:40 18,0 C 16,1 C 12,8 C 75 % 1021,5 hPa 0,0 l/m 0 min 0 min 0 W/m 3,2 km/h (1 Bft) 97,87 %
31.05.2023 23:42 17,9 C 16,1 C 12,8 C 75 % 1021,5 hPa 0,0 l/m 0 min 0 min 0 W/m 0,0 km/h (0 Bft) 97,83 %
31.05.2023 23:44 17,9 C 16,1 C 12,8 C 75 % 1021,5 hPa 0,0 l/m 0 min 0 min 0 W/m 3,2 km/h (1 Bft) 97,87 %
31.05.2023 23:46 17,8 C 16,1 C 12,8 C 75 % 1021,5 hPa 0,0 l/m 0 min 0 min 0 W/m 0,0 km/h (0 Bft) 95,74 %
31.05.2023 23:48 17,8 C 16,1 C 12,8 C 74 % 1021,6 hPa 0,0 l/m 0 min 0 min 0 W/m 6,4 km/h (2 Bft) 97,87 %
31.05.2023 23:50 17,7 C 16,1 C 12,8 C 73 % 1021,6 hPa 0,0 l/m 0 min 0 min 0 W/m 3,2 km/h (1 Bft) 97,87 %
31.05.2023 23:52 17,6 C 16,1 C 12,8 C 73 % 1021,6 hPa 0,0 l/m 0 min 0 min 0 W/m 0,0 km/h (0 Bft) 97,87 %
31.05.2023 23:54 17,6 C 16,1 C 12,8 C 73 % 1021,6 hPa 0,0 l/m 0 min 0 min 0 W/m 3,2 km/h (1 Bft) 97,87 %
31.05.2023 23:56 17,6 C 16,1 C 12,8 C 74 % 1021,6 hPa 0,0 l/m 0 min 0 min 0 W/m 0,0 km/h (0 Bft) 93,48 %
31.05.2023 23:58 17,5 C 16,1 C 12,8 C 74 % 1021,6 hPa 0,0 l/m 0 min 0 min 0 W/m 0,0 km/h (0 Bft) 95,74 %
_ Min-Zeit 06:02 04:56 05:02 14:08 20:10 - - - - 21:56 06:28
Minimum _ 11,8 C 11,1 C 7,8 C 44 % 1020,9 hPa - - - - 0,0 km/h (0 Bft) 85,37 %
_ Max-Zeit 17:14 14:12 13:38 06:24 08:02 00:00 13:06 00:00 13:38 00:02 00:10
Maximum _ 27,1 C 33,3 C 28,3 C 91 % 1025,4 hPa 0,0 l/m 5 min 0 min 947 W/m 29,0 km/h
O (5 Bft)
100,00 %
Durchschnitt _ 19,7 C 21,5 C 16,3 C 66 % 1023,5 hPa #0,0 l/m #11:51 h #0 min. 510 W/m 10,3 km/h (2 Bft) 97,51 %
© 2023 W. Hausmann